[{"header": {"dx": 0.06612293990616946, "dy": 0.0552356325346848, "nx": 98, "ny": 59, "la1": 35.046912555036876, "la2": 31.78801023549047, "lo1": -121.43107172385933, "lo2": -114.95102361305473, "refTime": "2026040712", "parameterCategory": 1, "parameterNumber": 2}, "data": [6.56, 6.56, 6.56, 6.31, 6.31, 5.92, 5.75, 5.8, 5.39, 4.73, 4.37, 3.47, 1.8, 1.2, 0.0, 0.6, 0.0, -2.21, -3.74, -4.85, -5.36, -4.41, -4.0, -3.49, -3.16, -2.84, -3.16, -4.4, -4.0, -5.2, -6.36, -5.2, -5.36, 4.47, 4.47, 4.47, 4.47, 4.92, 4.47, -0.0, 1.6, 4.24, 6.26, 7.47, 9.2, 11.26, 13.51, 14.61, 14.56, 11.87, 4.98, -0.0, 3.72, 4.56, 4.71, 4.96, 6.64, 7.13, 7.96, 8.4, 8.79, 8.77, 5.69, 7.15, 4.74, 6.4, 6.52, 8.17, 8.91, 10.84, 11.76, 11.44, 10.66, 10.28, 9.83, 9.74, 10.41, 11.62, 0.0, -12.52, -9.97, -7.15, -5.81, -4.0, -2.53, -1.4, 0.0, 1.2, 2.86, 4.09, 6.7, 7.35, 7.9, 8.53, 9.36, 9.5, 8.93, 4.43, 6.31, 6.56, 6.56, 6.31, 6.31, 5.92, 5.92, 5.52, 5.1, 4.66, 4.56, 3.22, 1.8, 1.2, 0.0, 1.9, 1.24, 0.0, -3.22, -4.27, -6.36, -6.17, -4.47, -3.45, -3.16, -2.79, -2.84, -3.07, -3.07, -3.51, -3.9, -3.39, -2.21, -1.4, -0.0, 2.98, 4.38, 4.92, 4.77, 4.47, 4.47, 6.07, 8.0, 9.04, 10.51, 12.42, 14.08, 14.08, 12.39, 4.46, -0.0, -0.0, 4.29, 4.22, 3.77, 4.21, 5.82, 7.13, 8.34, 8.99, 9.13, 8.37, 7.81, 5.95, 5.06, 6.08, 7.28, 8.22, 8.79, 9.92, 11.03, 11.21, 11.11, 10.28, 8.94, 8.85, 10.12, 11.62, 0.0, -12.52, -9.97, -7.15, -5.81, -4.0, -2.53, -1.4, 0.0, 1.2, 2.86, 4.09, 6.7, 7.35, 7.9, 8.53, 9.36, 9.5, 8.93, 4.43, 6.31, 6.31, 6.31, 6.31, 6.31, 5.89, 5.92, 5.52, 5.56, 5.15, 4.5, 3.85, 2.07, 0.99, 1.9, 1.58, 2.21, 1.61, -0.7, -3.22, -4.66, -6.57, -7.31, -4.92, -3.74, -3.49, -2.51, -2.53, -2.91, -3.13, -3.13, -3.13, -2.63, -1.9, -0.0, 1.98, 4.15, 5.36, 6.17, 5.81, 6.32, 7.27, 9.7, 11.48, 11.91, 12.07, 12.88, 12.13, 5.49, -0.0, -0.0, 2.82, 3.91, 4.22, 3.55, 3.99, 6.01, 7.51, 8.6, 9.13, 9.13, 8.06, 6.99, 6.28, 5.69, 6.63, 7.21, 8.72, 9.38, 9.58, 10.8, 11.87, 12.01, 10.73, 7.94, 7.15, 9.39, 12.96, 0.0, -13.41, -9.75, -8.05, -5.37, -3.47, -3.22, -2.8, -2.21, 0.0, 2.84, 6.07, 8.68, 8.64, 7.78, 7.72, 9.67, 10.73, 6.26, 4.47, 6.31, 6.31, 6.31, 6.31, 6.31, 5.89, 5.67, 5.69, 5.29, 4.88, 4.45, 4.0, 2.16, 1.27, 1.6, 2.53, 2.86, 3.58, 2.15, -0.76, -4.0, -4.57, -6.99, -7.71, -5.78, -3.95, -3.07, -2.53, -2.53, -3.13, -3.6, -4.0, -4.3, -3.9, 3.58, 4.47, 5.81, 7.45, 8.17, 8.12, 9.17, 10.71, 11.25, 10.47, 10.32, 10.83, 10.31, 5.59, 6.71, 1.25, 2.4, 3.68, 3.0, 3.97, 3.77, 4.94, 6.32, 7.96, 8.99, 9.55, 8.99, 7.63, 6.6, 4.87, 5.82, 6.64, 7.87, 7.68, 8.6, 9.62, 11.8, 13.56, 14.31, 12.52, 8.48, 4.54, 6.79, 12.37, 10.75, -13.15, -8.49, -5.81, -5.06, -4.98, -3.6, -3.32, -2.53, 1.27, 4.43, 8.38, 10.01, 9.08, 7.36, 7.59, 2.69, 2.68, 4.24, 6.71, 6.31, 6.31, 6.31, 6.31, 6.31, 6.31, 5.89, 5.92, 5.26, 4.84, 4.66, 3.75, 2.16, 1.19, 2.0, 2.95, 3.16, 3.16, 2.53, 0.0, -3.74, -6.64, -4.47, -7.08, -6.55, -6.2, -3.58, -3.13, -3.13, -3.58, -2.21, -3.48, -5.3, -4.34, 0.0, 3.11, 4.4, 7.9, 9.06, 9.39, 10.32, 10.25, 8.53, 7.69, 9.13, 9.92, 8.33, 7.6, 6.4, 4.47, 4.19, 3.72, 3.72, 4.22, 5.15, 6.32, 7.28, 7.96, 8.82, 9.36, 8.63, 6.0, 5.49, 5.24, 6.64, 7.35, 7.4, 6.64, 7.13, 8.93, 11.66, 14.18, 14.58, 13.59, 12.35, 5.03, 3.43, 8.4, 11.46, -11.87, -4.09, -2.23, -4.54, -6.4, -4.0, -2.53, 0.0, 5.03, 8.22, 9.92, 10.12, 8.58, 6.44, -2.6, -0.0, 2.91, 5.81, 8.87, 6.31, 6.31, 6.31, 6.31, 6.31, 6.31, 5.89, 5.67, 5.26, 5.29, 4.88, 3.75, 2.16, 1.19, 2.2, 2.76, 2.76, 3.22, 4.01, 0.89, -5.49, -7.85, -7.81, -6.88, -5.51, -6.0, -4.22, -2.41, -0.98, 0.0, 2.84, 0.0, -2.12, -2.28, -0.68, 0.7, 2.44, 6.65, 9.12, 8.74, 6.0, 4.6, 3.84, 8.0, 11.18, 12.49, 12.04, 10.73, 7.54, 5.37, 4.11, 4.43, 5.06, 4.47, 5.37, 6.18, 6.91, 7.37, 8.21, 10.25, 8.82, 5.43, 5.06, 5.69, 6.73, 7.76, 7.4, 6.32, 6.01, 8.42, 11.36, 12.74, 12.56, 13.33, 14.44, 13.86, 5.59, 2.68, 4.47, 0.0, -2.3, -2.48, -3.79, -5.84, -3.43, -0.72, 1.49, 5.57, 8.41, 8.38, 7.9, 9.5, 6.64, -3.35, -0.0, 3.53, 7.37, 9.33, 6.31, 6.31, 6.31, 6.31, 6.31, 5.89, 5.89, 5.89, 5.67, 5.26, 4.84, 3.7, 1.98, 2.2, 2.6, 2.76, 2.99, 3.72, 4.46, 3.69, -0.73, -4.09, -7.69, -7.59, -5.44, -4.46, -4.2, -3.14, -2.09, -1.84, 0.0, 3.58, 3.2, 0.82, 0.0, 0.0, 1.5, 5.18, 7.68, 5.52, 3.3, 1.11, 3.25, 7.78, 12.09, 11.44, 11.87, 10.58, 7.97, 6.64, 5.36, 4.89, 5.06, 5.06, 5.06, 5.24, 5.84, 6.6, 8.06, 9.54, 7.89, 5.43, 5.21, 5.58, 5.06, 6.32, 7.87, 7.44, 6.8, 8.67, 10.58, 11.44, 11.71, 14.16, 15.16, 15.59, 13.86, 8.24, 5.4, 9.83, -2.4, -2.35, -3.09, -2.99, -1.47, 0.68, 2.37, 3.68, 6.64, 7.19, 6.7, 4.75, -5.36, -4.02, 0.0, 3.45, 7.76, 8.72, 6.31, 6.31, 6.31, 6.31, 6.31, 5.89, 5.89, 5.89, 5.67, 5.23, 4.8, 3.45, 1.84, 2.8, 4.74, 4.43, 4.01, 4.74, 4.71, 4.74, 3.58, 3.07, 1.9, -2.35, -4.8, -3.45, -2.13, -3.25, -5.46, -4.47, -3.49, -1.41, 1.73, 4.6, 3.36, 2.15, 0.7, 2.41, 5.69, 6.3, 4.83, 2.97, 3.41, 4.43, 4.4, 4.11, 4.93, 7.6, 8.24, 7.2, 4.6, 4.43, 4.58, 5.06, 5.37, 5.37, 7.2, 7.76, 8.56, 8.56, 8.14, 6.02, 3.97, 4.29, 2.16, 4.47, 8.4, 8.6, 6.71, 7.15, 8.94, 10.28, 11.14, 11.84, 13.11, 12.48, 11.99, 10.55, 11.76, 14.07, 11.06, -1.09, -1.54, -0.69, 0.0, 2.22, 3.44, 4.1, 3.56, 3.82, 0.0, -3.79, -4.41, -3.35, 1.27, 4.09, 6.82, 7.42, 6.31, 6.31, 6.31, 6.31, 6.31, 5.89, 5.64, 5.64, 5.64, 5.2, 4.72, 4.21, 2.49, 1.84, 2.83, 3.99, 4.5, 5.24, 4.43, 3.83, 3.58, 5.26, 6.64, 3.58, -1.52, -2.54, -2.4, -5.2, -7.59, -5.44, -2.49, 0.0, 0.0, 2.48, 3.82, 3.65, 2.33, 2.33, 2.97, 6.0, 4.02, 3.39, 2.86, 1.26, 2.24, -2.53, 3.13, 4.02, 5.2, 4.87, 5.31, 4.58, 4.87, 5.37, 6.45, 7.15, 8.21, 9.66, 9.92, 9.24, 8.8, 6.65, 4.47, 1.19, 0.88, 4.47, 8.79, 8.67, 5.81, 5.81, 7.15, 8.91, 11.52, 11.75, 10.93, 9.77, 8.94, 10.12, 12.93, 15.11, 16.54, 0.0, 0.0, 0.0, 0.85, 1.84, 3.39, 2.19, -7.59, -8.8, -4.98, -4.66, -3.07, -1.2, 2.0, 4.46, 6.82, 6.82, 6.31, 6.31, 6.31, 6.31, 6.31, 5.64, 5.64, 5.86, 5.86, 5.86, 5.36, 5.55, 4.9, 3.04, 1.84, 2.71, 4.65, 4.36, 3.6, 3.82, 4.23, 5.29, 6.64, 6.44, 1.95, -2.82, -3.91, -6.3, -6.97, -3.53, 0.0, 1.29, 0.0, 0.0, 0.0, 1.45, 4.44, 4.75, 4.47, 0.71, 1.58, 2.24, 2.24, 1.0, -0.0, -0.0, -0.0, 1.4, 1.66, 1.72, 3.2, 4.87, 5.84, 6.55, 7.15, 8.18, 9.77, 10.6, 10.84, 10.14, 9.8, 7.15, 7.63, 1.03, 1.1, 5.06, 8.58, 8.91, 5.29, 3.58, 5.75, 10.18, 11.89, 11.42, 10.7, 9.34, 7.95, 8.56, 10.93, 13.77, 16.09, 16.27, 0.0, 1.07, 2.12, 3.68, 5.03, 7.07, 8.05, -5.64, -4.98, -3.83, -1.61, -0.59, 2.2, 4.12, 6.44, 5.82, 6.31, 6.31, 6.31, 6.31, 6.31, 6.29, 5.86, 5.86, 5.86, 5.83, 6.5, 6.68, 6.72, 5.36, 3.53, 3.34, 4.13, 4.26, 3.07, 2.58, 1.93, 0.0, 1.83, 3.93, 3.82, -5.37, -3.79, -3.79, -4.37, -1.52, 0.0, 0.0, -2.24, 0.0, 0.0, 1.54, 4.83, 4.92, 1.58, 1.86, 2.17, 1.79, 1.34, 1.79, 1.79, -0.0, -0.0, 0.99, 0.79, -0.0, 1.49, 4.19, 5.2, 6.4, 7.82, 8.82, 10.4, 11.8, 12.03, 11.18, 8.94, 7.98, 6.28, 1.07, 2.54, 5.44, 8.18, 8.21, 6.99, 6.26, 7.85, 10.05, 10.98, 10.05, 9.7, 10.02, 8.4, 6.79, 8.3, 11.2, 13.57, 15.38, 14.23, 7.78, 5.2, 5.26, 5.31, 6.26, 6.17, 4.77, 0.0, -2.23, -2.0, 0.0, 2.0, 3.79, 5.06, 3.78, 6.31, 6.31, 6.31, 6.56, 6.29, 6.29, 6.29, 6.29, 6.27, 6.5, 6.25, 7.13, 7.13, 7.44, 7.24, 6.33, 5.92, 5.62, 4.77, 3.13, 1.48, 0.0, -1.39, -2.49, -5.6, -2.24, -2.24, -1.86, -1.7, -2.6, -2.53, -1.79, -2.21, -1.9, 2.68, 0.0, 0.0, -0.0, 2.68, 3.13, 2.0, 1.26, -0.0, -0.0, 3.13, 2.68, 2.24, 1.26, 1.2, 1.9, 2.68, 3.04, 3.58, 4.47, 6.02, 8.06, 9.97, 11.95, 12.52, 10.24, 6.26, 7.2, 3.8, -0.0, 2.69, 6.32, 8.47, 9.4, 9.2, 10.08, 10.28, 10.69, 9.36, 7.54, 7.42, 9.24, 8.8, 6.73, 7.94, 9.84, 10.66, 11.27, 12.08, 11.8, 10.52, 7.15, 7.08, 4.88, 4.88, 4.88, 4.66, 2.73, 0.0, 0.0, 2.48, 5.15, 3.48, 2.53, 6.56, 6.56, 6.56, 6.29, 6.29, 6.29, 6.29, 6.53, 6.27, 6.5, 6.9, 6.9, 7.55, 8.49, 8.87, 8.53, 8.15, 7.55, 6.97, 6.5, 6.98, 7.56, 7.2, 2.4, -3.48, -4.47, -3.82, -4.4, -5.08, -6.61, -4.02, -3.58, -3.32, -2.8, -2.4, -2.97, -3.39, -3.58, -3.58, -3.6, -2.21, -2.4, -1.9, -0.0, -0.0, 0.0, 0.71, 0.0, 0.0, 0.61, 0.59, 1.11, 2.44, 4.16, 5.59, 7.33, 7.63, 10.28, 11.57, 4.02, 1.55, 3.0, 1.49, -0.0, 5.69, 6.0, 5.58, 8.23, 10.0, 10.92, 9.96, 9.33, 8.67, 8.05, 8.44, 9.75, 9.42, 8.12, 7.64, 7.61, 6.35, 6.06, 9.65, 11.77, 11.87, 12.39, 10.41, 6.7, 4.77, 4.88, 5.32, 3.97, 3.6, 3.16, 4.19, 4.89, 2.84, 0.0, 6.29, 6.29, 6.29, 6.29, 6.29, 6.29, 6.29, 6.53, 6.27, 6.92, 7.16, 6.9, 7.55, 8.2, 8.86, 9.19, 9.08, 8.73, 8.79, 9.09, 10.35, 11.21, 11.8, 11.44, 10.38, 4.6, -8.0, -6.26, -5.24, -6.16, -6.26, -3.58, -3.13, -2.68, -2.24, -2.68, -3.13, -3.13, -3.47, -3.74, -3.32, -3.47, -2.68, -0.0, -0.0, 2.24, 1.2, 0.79, 0.81, 0.0, 0.0, 2.23, 4.58, 4.74, 3.6, 2.61, 1.33, 5.69, 9.86, 0.95, -3.22, -2.0, -0.0, 6.26, 1.55, 2.23, 4.02, 5.81, 9.64, 6.18, 7.27, 9.1, 10.18, 9.83, 9.68, 10.32, 10.05, 6.8, 4.46, 4.12, 3.07, 5.3, 8.57, 10.91, 10.01, 11.37, 12.04, 9.45, 5.59, 4.92, 5.36, 4.88, 3.82, 4.98, 4.84, 3.83, 3.6, 0.0, 6.29, 6.29, 6.29, 6.29, 6.29, 6.29, 6.53, 6.53, 6.92, 6.92, 7.16, 7.55, 7.95, 8.58, 9.5, 9.82, 10.09, 10.01, 10.01, 10.31, 10.51, 11.72, 12.5, 13.29, 12.82, 11.6, 9.67, 0.0, -5.81, -2.63, -3.98, -4.92, -2.68, -1.79, -1.79, -2.24, -1.79, -2.24, -3.2, -3.45, -3.45, -3.2, -3.13, 2.24, -0.0, -0.0, 2.68, 0.8, 1.4, 0.79, 0.96, 3.3, 3.4, 1.4, 0.71, 0.7, 0.0, 3.45, 6.18, 1.79, -2.54, -2.68, 2.24, 0.0, 0.0, 0.0, 1.84, 2.66, -0.0, -0.0, 4.47, 9.45, 11.57, 10.68, 9.66, 9.03, 4.77, 3.58, 4.0, 4.6, 4.43, 4.29, 6.68, 8.68, 8.03, 8.85, 11.16, 10.0, 8.06, 7.06, 6.65, 5.78, 5.2, 4.3, 3.97, 3.35, 1.6, 1.6, 6.29, 6.29, 6.29, 6.29, 6.29, 6.53, 6.53, 6.94, 6.92, 6.92, 7.57, 7.83, 7.95, 8.58, 9.5, 10.13, 10.72, 10.69, 10.94, 10.87, 11.16, 11.61, 12.26, 13.33, 13.65, 13.5, 12.31, 11.55, 9.83, 7.6, 5.81, -3.13, -2.24, -1.34, -2.24, 1.79, -0.0, -1.74, -2.23, -4.29, -2.86, -1.58, -0.0, -2.21, -2.53, -1.8, -1.8, -0.0, 1.79, 0.89, 1.9, 2.21, 1.79, -0.0, -0.0, 1.34, 1.6, 2.76, 2.97, 1.34, 1.34, 1.34, 0.45, 0.89, 0.71, 0.0, -0.71, -2.86, -2.15, -0.0, 4.57, 9.83, 12.27, 11.21, 9.11, 2.84, -1.08, -2.6, -5.36, 5.81, 6.4, 6.8, 6.52, 6.8, 6.99, 4.8, 7.27, 9.54, 8.24, 7.21, 8.17, 5.02, 3.82, 4.77, 4.73, 3.07, 1.6, 1.6, 6.29, 6.29, 6.29, 6.29, 6.29, 6.53, 6.94, 6.94, 6.92, 6.92, 7.57, 7.57, 8.22, 8.86, 9.21, 10.13, 10.43, 10.72, 11.23, 11.16, 11.34, 11.75, 12.64, 13.0, 13.96, 14.65, 14.73, 14.28, 13.38, 12.03, 10.23, 7.94, 5.09, 2.24, 0.89, -0.0, -1.4, -2.53, -2.53, -3.35, -2.8, -2.12, -3.2, -1.9, -2.53, -2.53, -2.53, -2.21, -2.21, -0.0, -0.0, -0.0, -0.0, 3.13, 2.68, 3.13, 4.92, 3.58, 2.53, 3.58, 3.58, 3.13, -0.0, -0.0, 2.24, 1.2, -1.49, -3.83, -2.23, 2.8, 8.06, 9.77, 11.6, 10.68, 4.92, -2.86, -4.98, -6.23, -5.6, -5.94, 6.71, 7.6, 7.63, 7.4, 8.17, 5.36, -0.0, 4.02, 3.93, 6.99, 8.0, 5.02, 3.72, 4.66, 5.6, 3.35, 2.15, 2.15, 6.29, 6.29, 6.29, 6.29, 6.29, 6.94, 6.94, 6.94, 7.19, 7.32, 7.57, 7.57, 8.22, 8.59, 8.86, 9.82, 10.75, 11.33, 10.94, 11.44, 11.75, 12.39, 12.64, 12.97, 13.84, 15.18, 16.01, 15.45, 14.99, 13.88, 12.39, 10.5, 8.37, 5.81, 4.02, -0.0, -2.5, -3.47, -3.13, -2.68, -2.68, -2.68, -2.68, -2.24, -2.68, -3.13, -3.13, -3.13, -2.21, -2.21, -0.0, -0.0, -0.0, 4.02, 4.02, 4.02, 4.47, 3.79, 5.81, 5.36, 4.92, 4.47, 4.02, -1.6, -2.0, -0.0, 1.26, 0.0, -1.22, 0.0, 5.4, 6.76, 7.59, 3.79, -2.24, -3.39, -3.53, -5.36, -6.26, -5.81, 0.0, 5.94, 6.79, 8.15, 6.28, 3.16, 2.51, 3.04, 4.11, 6.11, 7.96, 5.75, 4.27, 4.73, 5.31, 3.35, 2.15, 2.15, 6.29, 6.29, 6.29, 6.29, 6.29, 6.94, 6.94, 6.94, 7.19, 7.59, 7.57, 7.96, 8.22, 8.59, 8.59, 9.1, 9.82, 10.72, 10.59, 11.22, 12.92, 14.24, 13.19, 11.14, 11.28, 14.47, 13.29, 13.86, 13.28, 11.99, 11.41, 10.6, 9.38, 7.76, 6.0, -0.0, -2.79, -4.89, -3.53, -3.04, -2.63, -2.68, -2.68, -1.79, -2.68, -2.68, -3.13, -2.53, -2.53, -2.53, -0.0, -0.0, -0.0, -0.0, -0.0, 5.81, 5.36, 5.81, 5.81, 5.36, 4.47, -0.0, -0.0, -0.71, -2.0, -1.74, 1.34, 2.79, 4.0, 1.52, 1.32, 6.28, 10.65, 10.28, 5.36, -2.24, -2.24, -3.97, -5.4, -4.11, 3.49, 5.93, 7.21, 6.95, 6.3, 4.96, 4.26, 4.02, 6.77, 5.63, 4.87, 4.73, 5.69, 4.43, 4.46, 4.09, 2.51, 2.51, 6.29, 6.29, 6.29, 6.29, 6.29, 6.94, 6.94, 6.94, 7.59, 7.59, 7.59, 7.96, 7.96, 8.59, 8.86, 9.21, 9.5, 8.58, 7.9, 8.3, 11.88, 13.85, 13.39, 10.98, 11.33, 12.52, 12.82, 11.68, 11.76, 10.47, 9.52, 8.93, 8.99, 7.28, 5.69, 6.71, -5.7, -5.77, -5.81, -4.89, -4.44, -4.47, -4.02, -4.02, -3.58, -4.02, -3.58, -2.53, -2.53, -2.53, -2.53, -0.0, -0.0, -0.0, -0.0, 3.6, 7.15, 4.92, 3.2, 4.47, 3.58, -0.0, -1.9, -2.84, -1.74, -1.9, 2.24, 2.6, 4.43, 5.81, 8.17, 11.76, 16.21, 18.52, 15.2, 7.33, 2.99, -2.06, -5.06, -1.52, 2.49, 5.03, 6.32, 5.31, 5.1, 3.97, 1.98, 2.23, 3.43, 2.79, 2.11, 5.59, 6.32, 4.36, 3.08, 3.72, 3.16, 3.16, 6.29, 6.29, 6.29, 6.29, 6.53, 6.94, 6.94, 6.94, 7.59, 7.59, 7.59, 8.23, 8.23, 8.59, 9.5, 9.84, 9.5, 8.24, 7.89, 9.36, 12.22, 12.92, 12.6, 11.68, 12.01, 12.01, 11.06, 10.17, 8.05, 6.58, 6.32, 6.52, 6.52, 6.52, 4.75, 0.0, -5.81, -5.81, -6.26, -6.26, -5.81, -5.81, -6.26, -6.26, -5.36, -4.92, -3.58, -3.58, -2.21, -2.21, -2.53, -2.84, -0.0, -0.0, -0.0, 3.2, 5.94, 6.26, 4.92, 0.0, 2.24, -2.21, -3.2, -3.58, -2.24, -3.13, -2.68, 2.68, 3.22, 6.01, 7.26, 9.8, 14.03, 16.15, 15.61, 10.36, 6.88, 0.0, -8.23, -5.37, 0.0, 3.97, 5.69, 7.15, -4.74, -2.84, -2.8, 3.58, 4.47, 3.97, 3.79, 6.04, 6.48, 4.29, 2.11, 2.44, 2.73, 2.73, 6.29, 6.29, 6.29, 6.29, 6.53, 6.94, 6.94, 6.94, 7.59, 7.59, 7.59, 8.23, 8.23, 8.59, 9.21, 9.84, 9.21, 8.87, 9.8, 11.7, 12.33, 11.66, 10.72, 10.75, 12.01, 12.36, 11.87, 10.03, 7.21, 5.06, 4.74, 4.43, 4.74, 4.74, 3.68, 2.49, 0.0, -4.66, -5.81, -6.26, -6.26, -6.26, -6.26, -6.26, -5.81, -4.47, -4.47, -3.58, -2.21, -2.21, -2.53, -2.84, -0.0, -0.0, -0.0, 4.11, 4.11, -0.0, 6.26, 0.0, 2.24, -1.9, -1.86, -1.7, -2.68, -2.8, -3.58, -3.13, -0.0, -0.0, 0.88, 6.3, 12.39, 15.98, 5.89, 5.46, 6.14, 7.2, 3.25, -8.55, -6.7, -3.0, -6.71, -5.6, -4.74, -4.4, -4.02, 0.0, 3.16, 5.02, 6.96, 6.28, 5.37, 3.48, 0.0, 0.88, 1.41, 1.41, 6.29, 6.29, 6.29, 6.29, 6.53, 6.94, 6.94, 6.94, 7.59, 7.59, 7.59, 8.23, 8.87, 8.87, 9.5, 9.5, 9.21, 9.5, 10.44, 12.01, 13.2, 12.45, 10.88, 10.3, 11.03, 12.02, 12.42, 11.28, 9.05, 7.96, 6.9, 5.36, 4.11, 3.79, 2.76, 1.84, 1.05, 0.0, -4.4, -5.81, -6.26, -6.26, -6.26, -6.26, -5.2, -4.66, -4.92, -2.53, -1.9, -2.21, -2.53, -2.53, -0.0, -0.0, -0.0, -0.0, -0.0, -4.4, 5.36, 3.58, 2.68, -1.58, -0.8, -1.58, -3.2, -3.16, 3.58, 0.0, 2.24, -1.26, -1.34, 0.8, 13.74, 8.06, 0.76, 0.89, 3.69, 6.74, 7.76, 3.36, -7.27, -6.7, -5.94, -4.8, -2.6, -2.2, -1.08, 0.63, 4.26, 7.27, 7.27, 4.75, 3.14, 3.58, 0.0, 2.0, 2.2, 2.2, 6.29, 6.29, 6.29, 6.29, 6.29, 6.94, 6.94, 6.94, 7.59, 7.59, 7.59, 8.23, 8.87, 8.87, 9.5, 9.21, 9.21, 10.13, 11.06, 11.96, 12.86, 12.93, 12.09, 11.07, 10.65, 11.1, 11.8, 11.42, 10.9, 10.43, 9.6, 8.0, 6.8, 5.75, 3.76, 3.22, 2.6, 2.4, 0.0, 0.0, -4.11, -6.26, -6.71, -6.26, -5.51, -4.09, -3.79, -3.16, -2.53, -0.0, -0.0, 4.02, 4.02, 4.02, -0.0, -0.0, -0.0, -2.24, -2.68, 4.02, 3.13, 2.24, 1.79, -2.21, -3.16, -2.2, -0.0, 5.36, 0.0, 1.34, 0.0, 5.46, 9.81, 5.4, -2.24, 0.0, 1.26, 4.39, 7.1, 7.93, 3.96, -5.46, -7.07, -4.46, -1.84, -1.4, 0.0, 2.46, 3.7, 4.29, 4.89, 3.79, 3.6, 4.02, 2.84, 2.53, 2.6, 2.6, 6.29, 6.29, 6.29, 6.29, 6.29, 6.29, 6.94, 6.94, 7.33, 7.59, 7.96, 8.23, 8.59, 8.87, 9.21, 9.21, 9.5, 10.13, 10.75, 11.96, 12.51, 12.8, 12.37, 12.09, 11.96, 11.69, 11.09, 11.09, 11.42, 11.5, 10.66, 9.81, 8.8, 8.0, 7.07, 5.69, 4.75, 3.68, 4.02, 3.47, 3.0, 0.0, 7.15, -6.71, -5.6, -4.11, -4.11, -2.4, -2.2, -0.0, -0.0, -0.0, 4.02, -3.58, -3.58, -0.0, -0.0, -1.26, -0.63, 0.0, 3.2, 1.58, -1.9, -2.21, -1.41, -2.0, -0.0, 4.47, 3.58, 0.54, 1.3, 4.22, 9.32, 10.18, 9.83, 5.06, 2.21, 2.07, 5.36, 7.54, 6.9, 3.04, 0.0, -5.7, -3.6, -2.82, 0.0, 0.0, 0.0, -3.82, -5.81, 8.05, 5.51, 4.4, 2.84, 2.98, 2.6, 2.6, 6.29, 6.29, 6.29, 6.29, 6.29, 6.29, 6.94, 6.94, 7.33, 7.59, 7.59, 8.23, 8.59, 8.87, 9.21, 9.21, 9.5, 10.13, 11.06, 11.36, 11.63, 12.16, 12.45, 12.73, 12.82, 11.96, 11.32, 10.37, 10.81, 10.45, 10.19, 10.28, 9.65, 9.03, 8.18, 7.58, 6.52, 6.01, 5.69, 4.56, 5.37, 5.37, 5.37, 7.6, 7.15, -4.74, -3.0, -0.0, -0.0, -0.0, -0.0, -0.0, 4.47, -3.58, -3.58, -2.53, -2.21, -0.0, 0.89, 0.0, 0.0, 2.53, 2.24, -1.9, -1.2, -2.53, -2.84, -2.53, -1.79, 0.0, 1.76, 3.97, 6.55, 11.35, 12.86, 12.52, 11.98, 6.45, 3.49, 5.59, 5.8, 7.93, 4.24, -4.8, -5.37, -3.93, -3.76, -2.23, -2.8, -3.74, -2.84, 5.06, 6.79, 5.58, 4.54, 3.16, 1.55, 1.55, 5.86, 5.86, 6.29, 6.29, 6.29, 6.29, 6.94, 6.94, 6.94, 7.59, 7.59, 8.23, 8.59, 8.87, 9.21, 9.21, 9.82, 10.43, 11.03, 11.36, 11.63, 11.92, 12.45, 12.73, 12.52, 12.24, 11.36, 10.73, 10.37, 10.09, 9.73, 9.14, 9.09, 9.4, 9.14, 8.88, 8.3, 8.18, 7.13, 6.87, 6.98, 6.01, 6.01, 5.69, 7.6, 7.6, -0.0, -0.0, -0.0, -0.0, -0.0, -0.0, -3.16, -3.39, -1.7, -1.2, -2.68, -1.58, -0.0, 0.89, 0.0, 0.0, 3.58, 1.58, 4.47, -2.24, -2.24, -1.34, -0.95, 0.0, 1.8, 3.15, 5.37, 7.82, 9.11, 11.18, 13.34, 10.73, 4.4, 4.74, 6.7, 7.1, 5.63, -2.6, -6.4, -5.58, -3.16, -3.2, -3.74, -2.86, -2.68, 0.0, 5.03, 6.01, 4.74, 3.48, 1.83, 1.83, 5.86, 5.86, 6.29, 6.29, 6.29, 6.29, 6.7, 6.94, 6.94, 7.59, 7.59, 7.96, 8.23, 8.59, 8.87, 9.21, 9.82, 10.43, 10.75, 11.03, 11.33, 11.58, 11.87, 12.22, 12.52, 12.24, 11.96, 11.23, 10.65, 10.01, 9.95, 9.37, 8.79, 8.73, 8.5, 8.45, 8.55, 8.3, 7.81, 7.51, 7.28, 6.98, 6.79, 7.6, 7.63, 8.05, 8.49, 6.8, 5.06, -0.0, -0.0, -0.0, -3.16, -2.84, -2.8, -1.7, -2.24, -1.34, -0.95, -1.34, -1.26, 0.0, 4.02, 2.68, 2.68, 4.92, 1.79, -1.34, -0.95, 0.0, 1.16, 3.16, 5.43, 4.36, 3.79, 6.6, 9.75, 9.54, 4.4, 3.16, 5.69, 7.89, 7.66, 0.0, -8.82, -6.6, -3.72, -3.39, -3.2, -2.53, -0.88, 0.0, 2.98, 5.15, 5.15, 4.19, 2.99, 2.99, 5.86, 5.86, 6.29, 6.29, 6.29, 6.29, 6.7, 6.94, 6.94, 6.94, 7.59, 7.96, 8.23, 8.59, 8.87, 9.21, 9.82, 10.43, 10.75, 11.03, 11.33, 11.58, 11.87, 11.87, 11.93, 11.33, 11.29, 10.94, 10.87, 10.59, 10.01, 9.95, 9.37, 8.79, 8.73, 8.15, 8.23, 8.18, 8.3, 7.76, 7.51, 7.28, 7.07, 6.32, 6.79, 7.6, 8.49, 8.05, 7.6, 6.71, 5.81, -5.36, -3.48, -2.0, -2.98, -2.8, -1.6, -1.6, -1.6, -1.6, -1.79, -2.68, 3.13, 1.79, 2.68, 2.68, 2.68, -1.34, -2.24, -1.26, 0.54, 3.72, 7.03, 6.01, 5.41, 5.63, 5.45, 3.97, 2.53, 2.41, 2.84, 7.41, 7.92, 2.28, -9.39, -5.36, -3.97, -3.6, -2.73, -1.19, 0.0, 0.0, 2.12, 3.33, 3.77, 4.46, 3.97, 3.97, 5.86, 5.86, 6.29, 6.29, 6.29, 6.29, 6.7, 6.94, 6.94, 6.94, 7.33, 7.96, 8.23, 8.59, 8.87, 9.21, 9.82, 10.43, 10.43, 10.72, 10.99, 11.33, 11.63, 11.63, 11.33, 10.99, 11.29, 11.23, 10.65, 10.59, 10.59, 10.01, 9.95, 9.37, 8.79, 8.5, 8.15, 8.23, 8.32, 8.06, 7.76, 7.51, 7.28, 6.7, 5.72, 7.21, 8.49, 7.01, 4.8, 0.0, 0.0, -4.92, -4.92, -3.16, -1.8, -1.98, -2.5, -3.07, -2.4, -2.6, -2.68, -2.4, 0.0, -0.8, -1.79, -1.58, -2.68, -0.89, -1.79, 0.0, 0.59, 3.15, 7.89, 10.25, 10.01, 8.87, 5.4, 1.05, 0.0, 1.6, 2.98, 6.4, 6.96, 5.81, -9.17, -5.75, -3.82, -4.02, -3.48, 0.0, 0.0, 0.0, 1.67, 3.4, 3.17, 4.21, 3.99, 3.99, 5.64, 5.64, 6.29, 6.29, 6.29, 6.29, 6.29, 6.7, 6.94, 6.94, 7.33, 7.33, 7.96, 8.59, 8.59, 9.21, 9.82, 9.82, 10.72, 10.72, 10.99, 10.99, 11.28, 11.28, 10.99, 10.73, 10.7, 10.65, 10.96, 10.96, 10.96, 10.96, 10.01, 9.73, 9.37, 9.09, 8.5, 7.9, 8.23, 8.32, 8.06, 8.18, 7.51, 6.91, 6.32, 6.7, 7.6, 5.75, 2.84, 0.0, 0.0, 0.0, 4.02, -0.0, -0.0, -1.6, -2.21, -2.79, -4.11, -3.07, -2.68, -1.86, -1.24, -1.2, -1.26, -0.0, -0.89, -0.71, 0.71, 2.84, 1.94, 1.88, 3.78, 10.7, 13.18, 13.41, 11.42, 5.95, 0.0, 0.0, 1.27, 2.98, 6.5, 6.0, 4.24, -11.4, -8.4, -5.16, -4.82, -3.9, -4.92, 0.0, 1.98, 2.4, 2.98, 2.98, 2.83, 2.83, 5.64, 5.64, 6.06, 6.29, 6.29, 6.29, 6.29, 6.7, 6.7, 6.94, 6.94, 7.33, 7.59, 8.59, 8.59, 9.5, 10.12, 10.12, 10.4, 10.4, 10.4, 11.28, 11.28, 11.03, 10.99, 10.39, 10.35, 10.06, 10.41, 10.51, 10.87, 10.65, 10.06, 9.66, 9.37, 9.09, 8.86, 8.5, 8.23, 7.96, 7.95, 8.06, 7.81, 7.58, 7.76, 7.64, 7.81, 6.9, 4.43, 2.2, 2.0, 2.53, 3.58, 3.58, -0.0, -0.0, -1.2, -2.5, -3.87, -4.92, -3.07, -2.15, -1.7, -1.2, -0.71, -0.0, -0.0, 0.71, 1.41, 3.91, 2.48, 0.0, 0.79, 6.79, 13.83, 14.64, 12.18, 8.93, 4.0, 0.0, 0.0, 4.92, 4.4, 6.87, 6.87, -4.24, -12.14, -9.9, -5.75, -4.84, -2.84, -2.8, 0.0, 1.8, 2.21, 1.95, 1.07, 1.07, 5.64, 5.64, 5.64, 6.31, 6.56, 6.56, 6.56, 6.96, 6.96, 6.96, 7.22, 7.6, 7.6, 8.24, 8.87, 9.5, 9.8, 9.8, 9.8, 10.4, 10.69, 10.94, 10.94, 10.69, 10.73, 10.11, 10.09, 10.09, 10.06, 10.37, 9.37, 9.37, 9.42, 9.42, 9.37, 9.01, 9.09, 8.5, 8.58, 8.23, 8.32, 8.06, 8.06, 7.81, 7.96, 8.4, 8.54, 8.0, 6.9, 5.72, 5.21, 4.46, 4.0, 4.02, 3.58, 3.13, -0.0, -1.86, -3.53, -4.47, -5.02, -1.86, -2.24, -0.99, -1.2, -0.61, -0.0, 0.89, 1.88, 2.15, 0.0, -1.2, 0.0, 3.72, 11.87, 14.84, 8.4, 1.6, 3.16, 7.21, 8.48, 9.83, 8.94, 7.6, 8.54, 7.26, -11.2, -11.71, -8.0, -5.95, -3.79, -2.21, -1.9, 0.0, 0.81, 0.95, 0.0, 0.0, 5.89, 5.89, 5.89, 6.31, 6.31, 6.56, 6.56, 6.96, 6.96, 6.96, 6.96, 7.6, 7.6, 8.24, 8.87, 9.19, 9.19, 9.8, 10.09, 10.09, 10.69, 10.69, 10.69, 10.65, 10.39, 10.11, 10.09, 10.39, 10.99, 10.59, 10.01, 8.82, 9.14, 9.37, 9.37, 9.01, 9.09, 8.73, 8.82, 8.23, 8.32, 7.68, 8.06, 8.18, 8.21, 8.34, 8.8, 8.15, 8.22, 7.6, 6.52, 6.0, 6.07, 5.51, 4.92, 4.47, 3.58, 3.13, -2.24, -3.13, -2.97, -1.79, -1.6, -1.9, -1.49, -1.2, -0.76, -1.0, 0.89, -0.6, -1.86, -1.49, 0.0, 4.83, 10.98, 13.91, 9.76, 3.13, 2.6, 6.36, 9.83, 11.18, 11.62, 11.62, 11.46, 11.87, 11.99, 13.41, -7.9, -6.32, -2.79, -2.53, -1.58, -2.21, 0.0, 0.0, 0.0, 0.0, 5.89, 5.89, 5.89, 6.31, 6.31, 6.31, 6.31, 6.96, 6.96, 6.96, 6.96, 7.6, 7.6, 7.96, 7.96, 8.58, 9.48, 9.48, 9.77, 10.09, 10.36, 10.36, 10.65, 10.65, 10.39, 10.09, 10.09, 10.39, 10.65, 10.59, 10.37, 9.49, 9.49, 9.14, 9.37, 9.3, 9.3, 8.73, 8.82, 8.23, 8.55, 7.95, 8.06, 8.43, 8.18, 8.34, 8.34, 8.4, 8.15, 7.76, 7.6, 7.2, 7.06, 6.94, 5.94, 5.81, 4.92, 4.02, 3.58, 2.68, -2.24, -2.24, -2.4, -1.9, -1.58, -1.9, -1.58, -1.0, 1.34, -1.26, -2.21, -1.33, 1.66, 7.48, 10.98, 12.33, 12.52, 11.6, 11.6, 11.99, 12.07, 11.61, 11.61, 12.04, 12.35, 13.79, 14.68, 12.96, 10.52, 2.12, -0.88, -2.07, -1.61, -2.4, -0.98, -0.76, 0.0, 0.0, 5.89, 5.89, 5.89, 6.31, 6.31, 6.31, 6.31, 6.7, 6.96, 6.96, 6.96, 7.33, 7.6, 7.6, 7.96, 8.54, 9.17, 9.48, 9.77, 9.77, 10.09, 10.65, 10.65, 10.39, 10.35, 10.09, 10.35, 10.06, 10.06, 10.01, 10.37, 10.09, 9.73, 9.46, 9.46, 9.3, 9.09, 9.02, 9.02, 8.45, 8.55, 7.95, 7.92, 8.43, 8.43, 8.99, 8.99, 8.34, 8.4, 8.15, 7.76, 7.6, 7.63, 7.06, 6.94, 6.36, 5.51, 5.36, 4.47, 3.13, 3.13, -2.23, -2.54, -2.0, -1.2, -1.26, -0.8, -1.0, -0.0, 0.0, -0.85, -0.59, 1.49, 8.8, 11.68, 11.71, 11.62, 12.58, 14.42, 15.65, 13.67, 10.68, 8.58, 9.6, 10.52, 11.18, 11.18, 9.39, 5.31, 4.98, 2.98, -1.19, -2.23, -2.21, -3.2, -0.96, -0.78, -0.78, 5.89, 5.89, 5.89, 6.31, 6.31, 6.31, 6.31, 6.7, 6.7, 6.96, 6.96, 7.33, 7.61, 7.89, 8.24, 8.24, 8.87, 9.17, 9.17, 10.06, 10.06, 10.3, 10.06, 10.35, 10.09, 10.09, 10.35, 10.35, 10.35, 10.06, 10.06, 10.01, 9.73, 9.73, 9.67, 9.46, 9.4, 9.4, 9.02, 9.14, 8.76, 8.18, 7.92, 8.0, 8.0, 8.8, 9.2, 8.99, 8.6, 8.4, 7.76, 7.81, 7.2, 7.21, 7.06, 6.94, 6.07, 5.51, 4.02, 3.58, 3.58, 3.58, -2.0, -1.86, -1.2, -0.0, -1.0, -0.85, -0.0, 1.34, 0.0, -0.53, 0.71, 7.94, 12.39, 11.96, 10.5, 11.55, 14.73, 14.94, 12.45, 7.87, 3.6, 5.69, 8.05, 8.05, 7.52, 4.87, 4.73, 5.09, 5.4, 3.79, -0.0, -3.16, -3.58, -1.41, 0.0, 0.0, 5.67, 5.67, 5.67, 6.07, 6.58, 6.58, 6.58, 6.97, 6.97, 6.97, 7.24, 7.61, 7.61, 7.61, 8.24, 8.24, 8.56, 9.46, 9.46, 9.72, 9.72, 9.72, 10.35, 10.35, 10.09, 10.35, 10.35, 10.35, 10.3, 10.06, 9.77, 9.77, 9.66, 9.37, 9.67, 9.67, 9.4, 9.4, 9.7, 9.14, 8.76, 8.49, 7.54, 7.6, 7.89, 9.36, 9.81, 9.2, 9.2, 8.6, 8.0, 7.37, 7.4, 6.8, 7.21, 6.64, 6.51, 5.64, 4.47, 4.02, 4.02, 3.58, 3.13, -1.2, -0.95, -0.0, -0.0, -0.0, -0.0, -0.0, 1.34, -1.24, 0.0, 5.34, 13.15, 12.53, 8.67, 9.26, 12.62, 13.76, 11.33, 7.51, 5.69, 6.71, 4.4, 4.34, 4.85, 5.31, 5.16, 5.16, 5.16, 5.26, 5.36, 5.81, 4.92, 0.0, 0.0, 0.0, 5.67, 5.67, 5.92, 6.33, 6.33, 6.33, 6.58, 6.58, 6.97, 6.97, 6.97, 7.33, 7.61, 7.61, 7.95, 7.95, 8.85, 8.85, 9.13, 9.46, 10.01, 10.01, 10.01, 10.01, 10.06, 10.01, 10.01, 10.3, 10.06, 10.01, 9.77, 9.42, 9.42, 9.58, 9.48, 9.3, 9.58, 9.4, 9.7, 9.14, 9.45, 8.88, 8.11, 7.28, 7.76, 9.77, 10.8, 9.58, 8.82, 8.21, 7.82, 7.6, 7.4, 6.99, 7.21, 6.79, 6.23, 5.2, 4.77, 4.47, 4.47, 4.02, 3.13, 2.68, -1.58, -1.2, -0.6, -0.0, -0.0, -0.0, -0.0, -0.71, 0.0, 2.53, 10.05, 12.03, 10.24, 8.0, 10.04, 11.42, 10.55, 9.33, 8.05, 5.6, 4.57, 5.51, 6.64, 6.64, 6.07, 6.07, 5.16, 5.29, 5.81, 6.4, 4.43, 2.4, 2.98, 0.0, 5.92, 5.92, 5.92, 5.92, 6.33, 6.33, 6.33, 6.33, 6.97, 6.97, 6.97, 7.33, 7.33, 7.61, 7.95, 8.24, 8.24, 8.53, 9.13, 9.42, 9.66, 9.66, 10.3, 10.06, 10.06, 10.3, 10.3, 10.3, 9.71, 10.01, 9.42, 9.42, 9.08, 9.37, 9.01, 9.3, 9.3, 9.58, 9.4, 9.32, 9.14, 9.05, 8.49, 8.11, 8.3, 10.4, 9.81, 8.05, 7.07, 7.42, 7.42, 7.6, 7.2, 6.99, 6.99, 6.79, 6.36, 5.7, 5.2, 4.92, 4.92, 4.47, 4.47, 3.58, 3.13, 3.13, -0.0, -0.0, -0.0, -0.0, -0.0, 0.0, 0.0, 1.84, 3.16, 8.85, 11.62, 10.69, 8.82, 7.82, 5.6, 4.47, 4.4, 6.57, 7.31, 7.37, 7.1, 7.1, 7.54, 7.1, 6.65, 6.2, 6.26, 7.81, 6.7, 5.06, 4.74, 4.74, 5.92, 5.92, 5.92, 5.92, 6.33, 6.33, 6.33, 6.33, 6.98, 6.98, 6.98, 7.61, 7.61, 7.61, 8.24, 8.24, 8.24, 8.53, 8.53, 9.42, 9.42, 9.66, 9.94, 9.71, 10.3, 10.3, 9.94, 9.94, 10.01, 10.01, 9.66, 9.42, 9.37, 9.01, 9.01, 9.3, 9.3, 9.2, 9.02, 9.32, 9.32, 8.76, 9.05, 9.05, 9.84, 10.63, 9.03, 7.2, 6.64, 6.07, 6.44, 7.2, 7.2, 7.2, 6.99, 6.99, 6.36, 5.81, 5.4, 5.26, 5.36, 4.92, 4.02, 4.02, 3.13, 3.13, 3.13, -0.0, -0.0, -0.0, -0.0, 0.0, 0.0, 0.61, 1.55, 3.91, 8.3, 10.41, 7.35, 3.14, 2.68, 3.14, 7.6, 9.55, 10.04, 9.32, 7.54, 7.15, 7.15, 7.15, 7.15, 7.15, 7.15, 7.89, 5.1, 5.1, 5.1, 5.1, 5.92, 5.92, 5.92, 5.92, 6.33, 6.33, 6.61, 6.61, 6.98, 6.98, 6.98, 7.32, 7.61, 7.61, 7.93, 7.93, 8.24, 8.53, 8.82, 9.08, 9.42, 9.37, 9.71, 9.94, 9.94, 9.94, 9.94, 10.01, 10.01, 9.66, 9.66, 9.08, 9.37, 9.01, 9.01, 9.3, 8.93, 8.93, 9.2, 9.02, 8.93, 8.93, 8.93, 9.2, 9.6, 10.27, 9.6, 8.14, 7.6, 7.35, 6.54, 6.4, 6.8, 6.8, 6.8, 6.99, 6.4, 6.0, 5.81, 5.4, 5.26, 5.36, 4.92, 4.47, 3.13, 3.13, -0.0, -0.0, -0.0, -0.0, -0.0, 0.0, 0.0, 1.3, 2.18, 3.7, 5.49, 8.18, 8.15, 8.49, 7.27, 9.64, 12.74, 13.02, 12.22, 10.65, 8.43, 6.71, 6.26, 6.71, 6.71, 7.15, 7.15, 7.44, 4.0, 4.6, 4.6, 4.6, 5.92, 5.92, 5.92, 5.69, 6.34, 6.61, 6.34, 6.34, 6.98, 6.98, 6.98, 7.32, 7.32, 7.61, 7.93, 7.93, 7.93, 8.53, 8.82, 9.08, 9.08, 9.37, 9.37, 9.59, 9.94, 9.94, 9.94, 10.01, 9.66, 9.66, 9.66, 9.3, 9.37, 9.01, 9.01, 9.3, 8.93, 8.73, 8.65, 8.65, 8.65, 8.93, 8.93, 9.2, 9.2, 9.45, 9.04, 8.76, 8.25, 7.98, 7.47, 7.06, 6.54, 6.4, 6.8, 6.6, 6.57, 6.0, 5.6, 5.81, 5.7, 5.26, 5.36, 4.47, 4.02, 3.13, -0.0, -0.95, -0.0, -0.0, 0.45, 1.0, 0.66, 1.47, 2.8, 2.88, 3.72, 7.81, 11.09, 10.99, 11.18, 13.76, 16.57, 15.81, 13.53, 11.09, 9.29, 8.49, 8.05, 6.71, 8.49, 6.2, 7.08, 7.89, 5.1, 4.37, 4.37, 4.37, 5.92, 5.92, 5.69, 5.95, 5.95, 6.34, 6.34, 6.34, 6.7, 6.7, 6.98, 6.98, 7.32, 7.32, 7.61, 7.93, 8.22, 8.22, 8.82, 8.82, 9.08, 9.37, 9.37, 9.37, 9.59, 9.59, 9.59, 9.66, 9.66, 9.66, 9.3, 9.58, 9.37, 9.01, 9.01, 8.93, 8.93, 8.73, 8.37, 8.65, 8.65, 8.93, 8.93, 9.2, 9.2, 9.45, 9.04, 8.84, 8.34, 8.34, 8.06, 7.56, 7.14, 6.64, 6.54, 6.4, 6.21, 6.57, 6.0, 5.37, 5.4, 5.7, 5.36, 4.92, 3.9, 3.58, -0.0, -0.0, -0.0, -0.0, 0.0, 1.0, 1.4, 1.84, 2.53, 2.68, 3.58, 7.6, 9.33, 6.59, 8.18, 14.53, 17.85, 16.61, 13.59, 11.09, 10.28, 10.28, 9.83, 9.21, 7.01, 4.73, 6.02, 6.79, 5.93, 3.91, 3.91, 3.91, 5.69, 5.69, 5.69, 5.95, 5.95, 6.34, 6.34, 6.34, 6.34, 6.7, 6.7, 7.27, 7.6, 7.6, 7.6, 8.22, 8.22, 8.22, 8.5, 8.5, 9.37, 9.37, 9.37, 9.37, 9.59, 9.59, 9.59, 9.66, 9.66, 9.3, 9.3, 9.58, 9.37, 9.01, 9.01, 9.3, 8.93, 8.73, 8.73, 8.65, 8.65, 8.76, 8.76, 8.38, 8.8, 8.8, 9.04, 8.63, 8.12, 8.34, 7.93, 7.69, 7.63, 7.14, 6.64, 6.54, 6.4, 6.21, 5.82, 6.0, 5.81, 5.4, 5.26, 4.82, 4.38, 4.02, 3.58, 3.13, 3.13, 0.0, 0.0, 0.0, 0.0, 1.0, 2.24, 1.58, 2.8, 5.6, 4.95, 3.45, 5.21, 13.13, 17.92, 16.74, 15.02, 12.71, 10.73, 9.77, 8.87, 5.09, 4.24, 4.4, 4.93, 5.75, 5.58, 3.45, 3.45, 3.45, 5.69, 5.69, 5.69, 5.95, 5.95, 5.95, 6.34, 6.63, 6.63, 6.98, 6.98, 6.98, 7.6, 7.6, 7.6, 7.9, 7.9, 8.22, 8.22, 8.5, 8.5, 9.37, 9.37, 9.37, 9.59, 9.59, 9.66, 9.66, 9.3, 9.3, 9.3, 9.58, 9.37, 9.01, 9.01, 9.3, 8.93, 8.73, 8.73, 8.65, 8.45, 8.45, 8.38, 8.38, 8.66, 8.66, 8.52, 8.52, 8.12, 8.12, 7.71, 7.93, 7.43, 7.01, 6.72, 6.72, 6.23, 6.0, 5.82, 5.43, 5.6, 5.4, 4.98, 4.82, 4.38, 4.47, 4.02, 3.58, 3.13, 1.34, 0.0, 0.0, -0.8, -1.79, -1.79, -0.0, 2.4, 1.88, 2.6, 3.55, 4.87, 10.58, 14.79, 15.97, 15.97, 13.5, 9.83, 6.02, 5.32, 5.32, 4.3, 4.0, 4.4, 5.6, 5.24, 3.2, 3.2, 3.2, 5.26, 5.26, 5.95, 5.95, 5.95, 5.95, 6.63, 6.63, 6.63, 6.98, 6.98, 6.98, 7.3, 7.6, 7.6, 7.9, 7.9, 7.9, 8.22, 8.5, 8.78, 9.02, 9.37, 9.37, 9.37, 9.37, 9.66, 9.3, 9.3, 9.3, 9.3, 9.58, 9.37, 9.01, 9.01, 9.3, 8.93, 8.73, 8.73, 8.37, 8.45, 8.45, 8.76, 8.38, 8.38, 8.66, 8.27, 8.52, 8.52, 8.12, 7.71, 7.6, 7.2, 7.43, 7.01, 6.6, 6.51, 6.0, 5.47, 5.6, 5.43, 5.2, 4.8, 4.66, 4.38, 3.6, 2.21, 3.13, -2.24, -1.79, 0.0, 0.0, -1.6, -1.79, -1.79, -1.79, -0.0, -0.0, 0.61, 2.79, 4.84, 6.99, 9.17, 12.56, 14.65, 13.72, 4.66, 3.45, 4.3, 5.2, 5.64, 4.73, 4.4, 5.2, 4.89, 1.63, 1.63, 1.63, 5.52, 5.52, 5.52, 5.95, 5.95, 5.95, 6.63, 6.63, 6.63, 6.98, 6.98, 6.98, 7.3, 7.3, 7.6, 7.9, 7.9, 7.9, 7.9, 8.78, 8.78, 8.78, 9.02, 9.37, 9.37, 9.37, 9.66, 9.3, 9.3, 9.3, 9.3, 9.58, 9.01, 9.01, 9.01, 8.65, 8.93, 8.73, 8.73, 8.37, 8.15, 8.45, 8.45, 8.38, 8.38, 8.27, 8.27, 8.27, 8.52, 8.12, 8.0, 7.6, 7.6, 6.8, 6.8, 7.01, 6.51, 6.51, 6.0, 5.47, 4.93, 5.05, 4.46, 4.8, 4.57, 4.0, 1.6, 0.0, 1.79, 1.34, 1.79, 1.79, 1.6, -1.79, -1.79, -1.79, -1.6, -0.8, -0.0, 1.9, 3.74, 4.19, 5.24, 9.4, 14.16, 11.18, 5.2, 1.84, 2.51, 3.88, 5.86, 6.36, 4.66, 4.46, 4.11, 2.6, 2.6, 2.6, 5.52, 5.52, 5.52, 5.95, 5.95, 6.24, 6.24, 6.63, 6.63, 6.63, 6.98, 6.98, 6.98, 7.3, 7.6, 7.6, 7.9, 7.9, 7.9, 8.78, 8.78, 8.78, 9.02, 9.02, 9.37, 9.37, 9.3, 9.3, 9.3, 9.3, 9.3, 8.73, 9.01, 9.01, 9.01, 8.65, 8.93, 8.73, 8.73, 8.37, 8.15, 8.45, 8.45, 8.09, 8.38, 8.0, 8.27, 8.27, 8.27, 7.87, 7.72, 7.34, 7.34, 6.95, 6.8, 6.67, 6.67, 6.28, 6.0, 6.0, 5.08, 4.73, 4.37, 4.46, 4.6, 3.48, 1.8, 0.0, 0.0, -0.57, -0.6, 1.34, 2.24, 2.24, -1.79, -2.68, -2.24, -2.17, -1.2, 1.79, 2.97, 2.86, 3.83, 7.98, 15.61, 12.91, 7.21, 1.33, 1.27, 2.22, 3.79, 6.44, 5.09, 4.09, 3.48, 3.22, 3.22, 3.22, 5.52, 5.52, 5.52, 5.95, 6.24, 6.24, 6.24, 6.63, 6.63, 6.63, 6.98, 6.98, 6.98, 7.3, 7.3, 7.6, 7.9, 7.9, 8.19, 8.52, 8.78, 8.78, 8.78, 9.02, 9.02, 9.02, 9.3, 9.3, 9.3, 9.3, 8.73, 8.73, 9.01, 9.01, 9.01, 8.65, 8.93, 8.93, 8.37, 8.37, 8.37, 8.15, 8.09, 8.09, 8.09, 8.0, 8.0, 8.0, 8.27, 8.27, 7.72, 7.72, 7.34, 6.95, 6.79, 6.41, 6.41, 6.28, 6.28, 5.75, 5.21, 4.65, 4.73, 4.46, 4.11, 3.63, 1.41, 0.0, 0.0, -1.2, -1.9, -1.49, 1.2, 2.23, 1.58, -2.24, -2.68, -2.17, -1.34, 0.89, 1.79, 2.97, 3.95, 14.6, 16.41, 14.11, 9.75, 0.0, 0.0, 1.11, 2.44, 5.06, 5.15, 3.84, 3.58, 3.16, 3.16, 3.16, 5.52, 5.52, 5.52, 5.95, 6.24, 6.24, 6.24, 6.63, 6.35, 6.35, 6.69, 6.69, 6.98, 7.3, 7.3, 7.6, 7.9, 7.9, 7.9, 8.19, 8.78, 8.78, 8.78, 9.02, 9.02, 9.02, 9.3, 9.3, 9.3, 9.08, 8.73, 8.73, 9.01, 9.01, 9.01, 8.65, 8.65, 8.93, 8.37, 8.37, 8.37, 8.15, 7.8, 8.09, 8.09, 7.72, 8.0, 7.61, 8.0, 8.0, 7.61, 7.44, 6.7, 6.7, 6.41, 6.41, 6.23, 6.23, 5.86, 5.75, 5.75, 5.21, 4.75, 4.43, 4.81, 4.43, 3.22, 1.88, 0.0, 0.0, -1.4, -1.6, 0.0, 0.65, 1.24, 0.0, -1.79, -1.7, -0.63, 0.89, 0.89, 1.79, 8.49, 13.82, 15.62, 13.82, 10.52, -3.97, -1.33, 0.0, 1.76, 5.06, 5.37, 4.29, 3.72, 3.16, 3.16, 3.16, 5.52, 5.52, 5.52, 5.8, 6.24, 6.24, 6.24, 6.35, 6.35, 6.35, 6.69, 6.69, 6.98, 7.3, 7.3, 7.3, 7.6, 7.9, 7.9, 8.19, 8.78, 8.78, 8.78, 8.78, 9.02, 9.02, 9.02, 9.3, 9.08, 8.73, 8.73, 8.73, 8.73, 9.01, 8.65, 8.65, 8.65, 8.44, 8.37, 8.37, 8.37, 8.15, 7.8, 7.8, 7.72, 7.72, 7.72, 7.35, 7.35, 8.0, 7.61, 7.44, 7.07, 6.7, 6.51, 6.15, 5.93, 6.23, 6.23, 5.86, 5.49, 5.29, 4.71, 4.43, 4.74, 4.74, 3.9, 2.88, 0.61, 0.65, 2.21, 2.68, 0.0, 0.0, 0.0, 0.0, -1.49, -1.16, -0.53, -0.71, -0.57, 0.0, 5.75, 11.18, 12.96, 11.18, 8.33, -2.4, -1.6, 0.0, 1.6, 5.15, 6.28, 5.21, 4.66, 3.48, 3.48, 3.48, 5.29, 5.29, 5.56, 5.8, 6.24, 5.98, 5.98, 6.35, 6.35, 6.35, 6.69, 6.98, 6.98, 7.3, 7.3, 7.3, 7.6, 7.9, 7.9, 7.9, 8.22, 8.78, 8.78, 8.78, 8.78, 8.78, 9.02, 9.08, 9.08, 8.73, 8.73, 8.73, 8.73, 9.01, 8.65, 8.65, 8.65, 8.44, 8.08, 8.08, 8.08, 8.15, 7.8, 7.8, 7.8, 7.21, 7.51, 7.72, 7.35, 7.72, 7.72, 7.15, 6.79, 6.79, 6.51, 6.51, 6.28, 5.93, 5.93, 5.86, 5.86, 5.65, 5.29, 4.74, 4.36, 4.36, 4.36, 3.9, 2.8, 1.8, 1.9, 2.24, 0.0, -0.99, 0.0, 0.0, 0.0, -0.66, -1.11, -1.13, -0.61, 1.33, 3.49, 8.24, 10.68, 9.77, 7.08, 0.0, -2.8, 0.0, 0.88, 3.68, 5.06, 5.58, 3.79, 4.11, 4.11, 4.11, 5.29, 5.29, 5.56, 5.56, 5.98, 5.98, 5.98, 6.35, 6.35, 6.35, 6.69, 6.98, 6.98, 7.3, 7.3, 7.3, 7.6, 7.9, 7.9, 7.9, 8.22, 8.5, 8.78, 8.78, 8.78, 8.78, 8.78, 8.78, 8.45, 8.73, 8.73, 8.73, 8.73, 8.73, 8.38, 8.65, 8.65, 8.44, 8.44, 8.08, 7.85, 7.85, 7.51, 7.51, 7.8, 7.56, 7.21, 7.21, 7.09, 7.72, 7.35, 7.15, 6.79, 6.79, 6.57, 6.51, 6.51, 6.28, 5.68, 5.68, 5.35, 5.65, 5.65, 5.38, 4.71, 4.29, 4.65, 4.29, 3.55, 1.66, 0.85, 1.0, 0.0, -1.74, -1.9, 0.0, 0.8, 0.0, -1.23, -1.35, 0.0, 0.63, 2.0, 5.15, 8.63, 8.67, 6.45, 4.92, -3.13, -2.21, 0.0, 0.79, 2.4, 5.06, 2.8, 0.0, 0.0, 0.0, 5.29, 5.29, 5.56, 5.56, 5.98, 5.98, 5.98, 6.35, 6.35, 6.35, 6.69, 6.98, 6.98, 6.98, 7.3, 7.6, 7.6, 7.6, 7.9, 7.9, 8.22, 8.22, 8.5, 8.78, 8.78, 8.78, 8.78, 8.78, 8.45, 8.45, 8.73, 8.73, 8.73, 8.38, 8.38, 8.38, 8.15, 8.15, 8.15, 7.81, 7.55, 7.55, 7.85, 7.51, 7.25, 7.25, 7.21, 7.21, 6.87, 6.87, 7.35, 7.15, 7.15, 6.79, 6.57, 6.23, 6.51, 6.28, 6.28, 5.68, 5.35, 5.35, 5.35, 5.35, 5.06, 4.71, 4.29, 4.29, 3.79, 1.99, 0.79, 0.0, 0.0, -1.2, -1.6, 0.0, 0.65, 0.65, -0.63, -1.19, -0.61, 0.0, 1.35, 4.29, 6.87, 7.81, 7.6, 5.58, -5.81, -2.53, -1.9, 0.0, 0.79, 2.4, 0.0, 3.13, 3.13, 3.13, 5.29, 5.29, 5.56, 5.56, 5.98, 5.98, 5.98, 6.35, 6.35, 6.35, 6.69, 6.98, 6.98, 6.98, 7.3, 7.6, 7.6, 7.6, 7.9, 7.9, 8.22, 8.22, 8.22, 8.5, 8.5, 8.78, 8.78, 8.78, 8.45, 8.45, 8.45, 8.45, 8.49, 8.15, 8.15, 8.15, 8.15, 8.15, 8.15, 8.15, 7.55, 7.55, 7.27, 6.95, 7.25, 7.25, 6.92, 6.92, 7.21, 7.21, 6.87, 7.15, 7.15, 7.15, 6.57, 6.57, 6.23, 6.28, 6.28, 5.68, 5.68, 5.68, 5.35, 5.35, 5.06, 4.71, 4.71, 5.0, 4.22, 3.47, 1.98, 0.0, 0.0, 0.0, 0.0, -1.08, 0.0, 0.0, -1.84, -1.76, -1.23, 0.0, 1.35, 3.33, 6.64, 8.59, 9.3, 7.33, 6.01, -5.69, -3.48, -2.21, 0.0, 0.0, 3.13, -3.58, -3.58, -3.58, 5.06, 5.06, 5.32, 5.98, 5.98, 5.98, 5.98, 6.35, 6.35, 6.35, 6.98, 6.98, 6.98, 6.98, 7.3, 7.6, 7.6, 7.6, 7.6, 7.9, 8.22, 8.22, 8.22, 8.22, 8.5, 8.5, 8.78, 8.78, 8.78, 8.45, 8.19, 8.19, 8.19, 8.19, 8.19, 8.15, 8.15, 8.15, 8.15, 8.15, 7.88, 7.55, 7.27, 6.95, 6.95, 6.95, 7.25, 6.92, 6.92, 7.21, 6.87, 6.87, 7.15, 7.15, 6.57, 6.57, 6.57, 5.98, 6.28, 6.28, 5.68, 5.37, 5.37, 5.37, 5.68, 5.05, 4.67, 4.67, 4.94, 4.22, 2.72, 0.61, 0.0, 1.8, 2.24, 0.0, -0.98, -1.2, -1.84, -2.0, -1.76, 0.0, 0.67, 3.33, 6.79, 9.09, 9.67, 8.93, 8.43, 8.8, 8.94, -5.6, -3.2, -3.13, -3.58, -4.92, -4.92, -4.92, 5.06, 5.06, 5.06, 5.46, 5.72, 5.98, 5.98, 6.35, 6.35, 6.35, 6.63, 6.98, 6.98, 6.98, 6.98, 7.6, 7.6, 7.6, 7.6, 7.6, 8.22, 8.22, 8.22, 8.22, 8.22, 8.22, 8.5, 8.5, 8.78, 8.19, 8.19, 8.19, 8.19, 8.19, 8.19, 8.19, 7.86, 8.15, 8.15, 7.88, 7.88, 7.55, 7.27, 7.27, 6.95, 6.65, 6.95, 6.92, 6.92, 6.92, 6.87, 6.87, 6.87, 6.62, 6.57, 6.57, 6.31, 6.31, 5.98, 5.98, 5.69, 5.37, 5.37, 5.37, 5.37, 5.05, 5.05, 4.94, 4.94, 4.22, 3.26, 1.88, 1.23, 2.84, 1.79, 0.0, -0.99, -1.4, -1.84, -1.41, -0.61, 0.0, 0.72, 2.64, 6.01, 8.37, 9.32, 8.93, 8.8, 8.05, 7.81, 7.6, -4.11, -3.48, -3.79, -6.26, -6.26, -6.26, 5.06, 5.06, 5.06, 5.46, 5.72, 5.98, 5.98, 6.35, 6.35, 6.35, 6.63, 6.98, 6.98, 6.98, 6.98, 7.6, 7.6, 7.6, 7.6, 7.6, 8.22, 8.22, 8.22, 8.22, 8.22, 8.22, 8.5, 8.5, 8.78, 8.19, 8.19, 8.19, 8.19, 8.19, 8.19, 8.19, 7.86, 8.15, 8.15, 7.88, 7.88, 7.55, 7.27, 7.27, 6.95, 6.65, 6.95, 6.92, 6.92, 6.92, 6.87, 6.87, 6.87, 6.62, 6.57, 6.57, 6.31, 6.31, 5.98, 5.98, 5.69, 5.37, 5.37, 5.37, 5.37, 5.05, 5.05, 4.94, 4.94, 4.22, 3.26, 1.88, 1.23, 2.84, 1.79, 0.0, -1.4, -1.4, -1.84, -1.41, -0.61, 0.0, 0.72, 2.51, 4.68, 6.32, 7.64, 8.54, 9.04, 9.04, 8.8, 8.4, 8.49, 7.6, 7.15, 7.6, 7.6, 7.6]}, {"header": {"dx": 0.06612293990616946, "dy": 0.0552356325346848, "nx": 98, "ny": 59, "la1": 35.046912555036876, "la2": 31.78801023549047, "lo1": -121.43107172385933, "lo2": -114.95102361305473, "refTime": "2026040712", "parameterCategory": 1, "parameterNumber": 3}, "data": [-10.13, -10.13, -10.13, -9.76, -9.76, -9.48, -9.58, -9.02, -8.76, -8.11, -7.28, -6.25, -3.6, -2.4, -1.79, -1.2, -1.79, -2.21, -1.49, -0.81, -0.0, 0.73, 2.0, 2.79, 3.16, 2.84, 3.16, 2.2, 2.0, 1.3, 2.12, 2.6, -0.0, 0.0, 0.0, 0.0, 0.0, 0.0, 0.0, 4.02, 3.2, 1.41, 0.0, -2.99, -4.6, -6.43, -8.74, -10.31, -11.13, -9.49, -1.99, 5.81, 5.58, 6.08, 7.07, 7.44, 6.64, 6.11, 4.98, 4.2, 3.3, 1.75, -5.69, 0.0, 4.74, 3.2, 3.91, 2.33, 2.97, 2.71, 2.71, 2.08, 1.18, 0.0, 0.0, 1.39, 2.6, 0.0, -12.96, -0.0, 2.49, -0.0, -0.0, -2.0, -2.53, -2.8, -3.13, -2.4, -2.15, -2.73, -4.46, -6.53, -7.9, -8.53, -8.32, -8.15, -5.95, -4.43, -9.76, -10.13, -10.13, -9.76, -9.76, -9.48, -9.48, -9.2, -8.93, -8.66, -7.17, -5.37, -3.6, -2.4, -3.58, -1.9, -1.86, -2.68, -2.41, -2.44, -2.12, -1.03, -0.0, 2.07, 3.16, 3.49, 2.84, 1.84, 0.61, 0.7, 0.98, 1.13, 2.21, 2.8, 3.13, 1.98, 0.88, 0.0, -1.19, 0.0, 0.0, -1.52, -4.0, -6.57, -9.7, -11.59, -12.42, -12.42, -11.62, -3.72, 5.81, 6.71, 5.72, 6.32, 6.6, 7.37, 6.79, 6.11, 5.21, 3.99, 3.65, 3.14, 1.95, 3.97, 5.06, 4.56, 4.37, 3.52, 3.3, 2.71, 3.68, 3.06, 1.23, 0.0, 0.0, 1.26, 1.84, 0.0, -12.96, -0.0, 2.49, -0.0, -0.0, -2.0, -2.53, -2.8, -3.13, -2.4, -2.15, -2.73, -4.46, -6.53, -7.9, -8.53, -8.32, -8.15, -5.95, -4.43, -9.76, -9.76, -9.76, -9.76, -9.76, -10.02, -9.48, -9.2, -8.65, -8.38, -7.72, -7.06, -3.45, -2.97, -1.9, -1.58, -2.21, -2.68, -3.51, -2.41, -2.66, -2.82, -2.09, -0.0, 1.49, 2.79, 3.14, 2.53, 1.16, -0.0, -0.0, -0.0, 0.53, 1.9, 2.68, 2.98, 1.66, 0.0, -1.03, -2.32, -4.22, -7.27, -10.51, -13.12, -15.09, -16.09, -15.45, -13.74, -7.06, 6.26, 7.15, 7.06, 6.52, 6.32, 6.21, 6.99, 6.01, 5.63, 4.78, 3.65, 3.65, 2.69, 2.99, 5.03, 5.69, 5.31, 6.01, 5.45, 5.21, 5.75, 5.4, 3.96, 1.2, 0.0, -1.32, 0.0, 0.0, 0.0, -13.86, -0.0, 3.25, -0.0, -5.37, -5.21, -2.41, -1.4, -2.21, -3.13, -2.84, -3.79, -6.31, -7.78, -8.64, -8.69, -6.45, 0.0, 0.0, 0.0, -9.76, -9.76, -9.76, -9.76, -9.76, -10.02, -9.63, -9.1, -8.82, -8.54, -8.27, -8.0, -5.4, -3.82, -3.2, -2.53, -2.15, -2.68, -2.86, -3.04, -2.0, -1.83, -2.99, -2.31, -0.64, 0.79, 1.84, 2.53, 2.53, -0.0, -1.8, -2.0, -1.23, -0.98, 0.0, 0.0, 0.0, -1.49, -3.63, -6.31, -9.17, -13.18, -14.47, -14.5, -13.49, -12.5, -11.17, -6.39, 0.0, 7.5, 7.21, 6.13, 6.0, 5.95, 6.6, 6.91, 6.32, 4.98, 4.99, 3.82, 2.7, 2.54, 3.77, 5.84, 6.79, 6.64, 5.9, 6.83, 7.82, 8.01, 7.26, 5.81, 3.58, 0.0, -2.83, -3.63, -2.26, -1.9, -10.75, -2.63, -0.0, -0.0, -5.06, -2.99, -1.8, -1.33, -2.53, -3.82, -4.43, -6.7, -7.51, -7.26, -8.41, -7.59, 8.06, 3.58, 1.41, 0.0, -9.76, -9.76, -9.76, -9.76, -9.76, -9.76, -10.02, -9.48, -9.35, -9.07, -8.15, -8.12, -5.4, -4.77, -4.0, -3.93, -3.16, -3.16, -2.53, -3.58, -1.49, -0.95, -0.0, -1.01, -1.45, -0.89, -0.0, -0.0, -0.0, -0.0, -2.21, -3.48, -6.06, -7.82, -9.39, -9.33, -8.8, -7.9, -9.89, -12.52, -13.49, -11.82, -8.53, -5.38, -3.65, -2.71, -1.67, 0.0, 3.2, 5.59, 5.24, 5.58, 5.58, 6.32, 6.18, 6.32, 5.2, 4.98, 5.29, 4.25, 2.35, 3.0, 4.58, 6.11, 6.64, 6.53, 6.48, 6.64, 8.02, 8.12, 7.49, 6.62, 6.81, 6.8, 2.06, -6.28, -4.12, -4.2, -1.91, -3.96, -2.73, -3.35, -3.63, -3.2, -2.0, -2.53, -4.02, -6.28, -8.22, -9.02, -7.36, -6.44, -8.58, 5.2, 4.02, 1.16, 0.0, -1.11, -9.76, -9.76, -9.76, -9.76, -9.76, -9.76, -10.02, -9.63, -9.35, -8.82, -8.54, -8.12, -5.4, -4.77, -4.4, -4.6, -4.6, -4.29, -4.81, -6.2, -4.58, -4.28, -3.35, -1.96, -1.84, -3.0, -2.53, -3.22, -3.9, -4.02, -2.84, -4.02, -6.36, -9.11, -11.6, -11.15, -11.36, -11.64, -12.16, -13.51, -11.99, -9.2, -3.07, -0.89, 0.0, -0.83, -0.8, 0.0, 0.94, 3.22, 4.11, 4.43, 5.06, 5.59, 5.37, 5.15, 4.94, 4.21, 4.56, 3.16, 3.21, 3.11, 5.06, 5.69, 5.89, 6.04, 6.48, 6.32, 6.01, 5.9, 5.25, 5.46, 7.73, 8.2, 6.02, 0.0, -6.98, -3.58, 0.0, -9.39, -3.83, -3.72, -3.79, -4.87, -4.12, -5.77, -7.45, -10.2, -11.57, -10.47, -7.9, -8.15, -6.64, 2.23, 2.68, -0.59, -1.84, -3.11, -9.76, -9.76, -9.76, -9.76, -9.76, -10.02, -10.02, -10.02, -9.63, -9.35, -9.07, -8.63, -5.94, -4.4, -5.2, -4.6, -4.98, -5.58, -6.7, -6.64, -4.41, -2.73, -5.38, -7.59, -6.52, -6.7, -8.4, -8.37, -7.31, -5.51, -3.58, 0.0, -1.6, -5.75, -9.39, -11.18, -11.98, -11.39, -9.88, -8.67, -8.79, -8.87, -9.75, -10.37, -8.46, -6.1, -3.96, -1.76, 1.14, 2.66, 4.02, 3.91, 5.06, 5.06, 5.06, 4.19, 4.87, 3.77, 2.69, 2.39, 3.15, 3.11, 3.47, 3.72, 5.06, 6.32, 5.9, 4.96, 3.4, 2.17, 1.76, 2.08, 2.93, 2.02, 1.08, 1.3, 0.0, 2.06, 2.16, 0.0, -7.21, -6.28, -6.94, -7.47, -8.82, -10.26, -11.84, -12.89, -12.17, -10.79, -10.04, -11.09, -0.0, -0.0, -3.13, -2.07, -3.45, -3.49, -9.76, -9.76, -9.76, -9.76, -9.76, -10.02, -10.02, -10.02, -9.63, -9.88, -9.6, -9.21, -6.45, -5.6, -4.74, -4.43, -4.81, -4.74, -5.38, -4.74, 0.0, 1.84, -1.9, -6.28, -9.6, -9.21, -9.6, -9.75, -7.64, -5.59, -4.65, -5.64, -6.94, -7.67, -9.24, -10.05, -11.15, -10.45, -9.1, -7.56, -6.44, -8.91, -12.51, -12.18, -8.8, -4.11, -2.11, 0.0, 2.06, 3.6, 2.76, 4.43, 5.49, 5.06, 5.37, 5.37, 4.5, 3.45, 2.57, 2.57, 2.44, 1.72, 0.66, 3.22, 5.4, 5.59, 4.2, 2.46, 0.0, 0.0, 0.0, 0.0, -0.93, -2.37, -2.81, -0.96, 3.6, 5.86, 4.28, 2.56, -11.06, -12.02, -9.26, -8.91, -10.73, -11.86, -12.04, -12.3, -12.46, -11.45, -11.18, -3.79, -0.73, -2.23, -3.82, -2.73, -4.26, -4.12, -9.76, -9.76, -9.76, -9.76, -9.76, -10.02, -10.16, -10.16, -10.16, -10.4, -10.62, -10.83, -9.97, -10.12, -8.48, -6.99, -7.2, -6.11, -4.43, -2.3, 0.0, 1.05, 0.95, -2.68, -6.07, -7.63, -7.21, -7.28, -7.59, -6.52, -9.97, -12.52, -13.86, -13.63, -11.45, -9.13, -10.47, -10.47, -8.91, -3.0, 0.0, -1.13, -2.15, -1.26, 0.0, 2.53, 0.0, 0.0, 2.6, 5.84, 6.63, 5.49, 5.84, 5.37, 5.53, 5.36, 4.56, 3.51, 2.71, 1.68, 1.6, 0.83, 0.0, 4.77, 5.29, 5.59, 3.3, 2.17, 0.0, 0.0, 0.0, -0.69, -1.54, -2.76, -2.34, -1.09, 0.0, 1.84, 0.92, 1.68, 0.0, -14.3, -9.83, -8.49, -9.35, -10.12, -10.18, -10.96, -7.59, -4.4, -2.99, -1.55, -1.84, -2.4, -4.0, -3.72, -4.26, -4.26, -9.76, -9.76, -9.76, -9.76, -9.76, -10.16, -10.16, -10.55, -10.55, -10.55, -11.31, -11.72, -11.03, -12.14, -11.93, -11.76, -12.1, -12.21, -11.99, -11.45, -9.86, -8.82, -6.64, -4.83, -7.81, -7.06, -6.52, -7.56, -9.3, -10.6, -12.07, -12.9, -12.07, -11.18, -11.18, -10.18, -7.76, -5.93, 0.0, 2.12, 1.58, 0.0, 0.0, 2.0, 2.68, 2.24, 2.24, 2.8, 4.15, 6.02, 6.4, 5.84, 4.87, 4.68, 5.36, 5.46, 4.44, 3.53, 2.71, 1.69, 0.82, 0.0, 2.54, 6.17, 6.61, 5.06, 3.81, 2.97, 0.88, 0.0, -0.82, -1.45, -2.1, -2.14, -0.82, -0.93, -2.98, -2.57, -2.34, -1.53, 0.0, -2.96, -13.41, -7.52, -6.36, -6.13, -6.28, -4.71, 0.0, -1.41, -1.99, -2.3, -2.68, -3.53, -4.4, -3.43, -4.83, -4.16, -9.76, -9.76, -9.76, -9.76, -9.76, -10.3, -10.55, -10.55, -10.55, -11.08, -11.22, -12.14, -11.61, -11.31, -10.6, -12.53, -13.23, -14.59, -15.34, -16.79, -17.33, -17.43, -16.44, -13.75, -11.45, -5.37, -3.79, -3.79, -7.28, -10.62, -10.73, -4.92, -0.0, -3.58, -6.26, -9.26, -8.05, 0.0, 1.58, 1.24, 0.54, 0.0, 0.0, 0.0, 0.0, 2.24, 2.68, 2.97, 3.95, 4.47, 3.74, 3.35, 2.6, 3.2, 4.34, 5.29, 5.2, 2.53, 0.93, 0.0, 0.0, 1.0, 5.03, 7.52, 7.63, 6.52, 5.46, 4.56, 2.99, 0.0, -1.75, -2.15, -2.06, -2.15, -1.62, -2.31, -4.2, -5.1, -5.28, -5.6, -4.52, -2.88, -5.34, -10.37, -2.6, -1.05, -0.76, 0.0, -1.03, -1.19, -4.47, -3.35, -4.0, -4.47, -4.0, -3.79, -5.06, -3.15, -9.76, -9.76, -9.76, -10.13, -10.3, -10.3, -10.3, -10.3, -10.83, -11.22, -11.36, -11.88, -11.88, -11.16, -9.66, -9.21, -9.48, -10.68, -12.53, -14.42, -13.33, -11.18, -9.74, -9.97, -2.8, -0.0, -0.0, 1.24, 0.57, -1.74, -2.53, -0.0, 2.21, 1.9, 0.0, -3.58, -3.58, 2.68, 0.0, 0.0, 1.0, 1.26, 1.79, 2.68, 0.0, 0.0, 0.0, 1.26, 2.4, 1.9, 0.0, -0.76, 0.0, 0.0, 1.72, 2.69, 2.49, 1.71, 0.0, -0.93, 0.0, 3.6, 7.6, 7.6, 8.06, 6.32, 6.59, 6.84, 5.52, 2.02, 0.0, -0.89, -0.78, -0.94, -1.65, -3.36, -4.4, -5.89, -7.22, -7.73, -7.38, -4.33, -3.29, -8.85, -2.1, 0.0, -1.01, -0.61, -0.61, -0.61, -1.55, -4.09, -4.47, -4.47, -3.72, -4.29, -3.48, -2.53, -10.13, -10.13, -10.13, -10.3, -10.3, -10.3, -10.3, -10.68, -10.83, -11.22, -11.5, -11.5, -11.62, -11.52, -10.06, -8.53, -6.98, -6.97, -7.55, -9.09, -8.73, -6.3, -3.6, -4.8, -3.48, -0.0, 1.27, 2.2, 2.82, 1.1, -0.0, -0.0, 1.33, 1.4, 1.2, 0.99, 1.13, -0.0, -0.0, 1.8, 2.21, 1.2, 1.9, 3.13, 2.68, -2.24, -2.12, -2.68, -3.13, -3.07, -3.53, -3.87, -4.27, -5.82, -6.98, -5.86, -2.54, 0.0, -1.05, 0.0, 4.66, 6.0, 7.45, 7.6, 5.69, 3.0, 3.72, 6.17, 5.0, 3.97, 3.98, 3.11, 2.17, 0.0, -0.94, -3.25, -5.14, -6.31, -6.88, -6.92, -5.64, -5.3, -5.63, -6.42, -3.96, -1.77, -2.6, -2.51, -1.19, -0.61, -0.67, -0.66, -1.8, -3.16, -5.24, -3.91, -2.84, -3.58, -10.3, -10.3, -10.3, -10.3, -10.3, -10.3, -10.3, -10.68, -10.83, -10.96, -11.34, -11.5, -11.62, -11.72, -11.23, -9.77, -7.95, -6.98, -6.9, -6.5, -6.21, -4.48, -2.53, -2.08, -4.15, -9.2, -4.0, -0.0, 1.16, 1.12, -0.0, -0.0, -0.0, -0.0, -0.0, -0.0, -0.0, -0.0, 0.87, 1.49, 1.33, 0.87, -0.0, 2.24, 3.13, 0.0, -2.4, -3.95, -4.85, -6.71, -7.15, -10.04, -12.6, -13.02, -11.99, -11.33, -9.29, -5.69, -4.23, 0.95, 2.41, 4.0, 5.81, 0.0, -4.66, -3.35, 0.0, 0.0, 1.93, 5.15, 7.27, 5.69, 3.39, 0.0, -1.76, -4.3, -3.77, -3.4, -2.98, -3.43, -3.84, -6.06, -7.85, -7.79, -7.51, -7.11, -4.81, -4.05, -1.6, 0.0, 0.0, -0.61, -1.27, -1.99, -3.22, -2.3, -1.8, -3.58, -10.3, -10.3, -10.3, -10.3, -10.3, -10.3, -10.68, -10.68, -10.96, -10.96, -11.34, -11.62, -11.35, -11.44, -11.28, -10.4, -9.5, -8.24, -7.51, -7.09, -6.8, -5.55, -4.86, -3.91, -3.94, -5.8, -6.45, -8.94, -0.0, 0.53, 0.57, -0.0, -0.0, -0.0, -0.0, -0.0, -0.0, -0.0, 1.6, 2.07, 2.07, 1.6, -0.0, 0.0, 3.13, 3.13, 0.0, -1.6, -2.8, -3.95, -5.73, -8.79, -6.8, -2.8, -2.12, -3.51, -5.81, -7.76, -5.15, 0.0, 0.85, -0.0, 0.0, -1.79, -3.58, -4.47, -5.51, -6.64, 2.68, 4.47, 5.59, 4.05, 1.16, -0.97, -3.51, -2.58, 1.19, 0.0, -2.0, -2.76, -4.43, -5.15, -5.94, -6.31, -6.42, -8.85, -7.44, -5.0, -2.69, -1.18, -0.83, -0.64, -1.3, -1.23, -0.66, -2.23, -3.2, -3.2, -10.3, -10.3, -10.3, -10.3, -10.3, -10.68, -10.68, -10.41, -10.96, -10.96, -11.07, -11.44, -11.35, -11.44, -11.28, -10.72, -10.13, -9.5, -8.51, -7.85, -7.44, -6.72, -6.45, -5.18, -4.27, -3.12, -2.24, -1.28, 0.0, 0.0, 0.0, -0.0, -0.0, -0.0, -0.0, 0.0, 2.24, 2.6, 3.35, 3.22, 2.15, 1.58, 2.68, 2.21, 2.53, 3.6, 3.6, 3.13, 0.0, 0.0, -1.9, -2.21, 0.0, 1.79, 1.79, 0.0, -3.2, -4.6, -0.99, 0.0, 0.0, 0.0, 0.0, 0.0, -2.12, -4.92, -7.12, -2.15, 2.86, 3.58, 1.83, 0.0, -2.45, -3.06, -2.28, 2.84, 4.34, 5.2, -0.0, 0.0, -3.2, -3.4, -3.91, -3.4, -2.99, -2.4, -7.27, -2.39, -2.06, -2.4, -2.33, -1.88, -1.27, -1.19, -1.35, -1.84, -3.2, -3.2, -10.3, -10.3, -10.3, -10.3, -10.3, -10.68, -10.41, -10.41, -10.96, -10.96, -11.07, -11.07, -11.16, -11.23, -10.94, -10.72, -10.43, -10.13, -8.86, -8.22, -7.16, -6.46, -5.69, -4.79, -3.1, -1.72, -0.87, -0.89, -0.96, -1.0, -1.02, -1.32, -1.7, 0.0, 0.0, 1.79, 2.8, 2.53, 2.53, 2.23, 1.4, 0.71, 1.6, 1.9, 2.53, 2.53, 2.53, 2.21, 2.21, 3.13, 2.68, 2.68, 3.13, 0.0, 0.0, 0.0, 0.0, 0.0, 2.53, 0.0, 0.0, 0.0, 2.68, 2.24, 0.0, -2.4, -3.74, -2.3, -1.49, -1.4, -2.69, -5.43, -5.8, -4.58, 0.0, 2.15, 2.99, 2.49, 2.8, 1.98, 0.0, 0.0, -2.54, -3.17, -2.33, 0.0, 4.02, 0.0, -2.95, -3.99, -4.0, -1.88, -2.48, -2.66, -2.8, -2.23, -2.86, -2.86, -10.3, -10.3, -10.3, -10.3, -10.3, -10.41, -10.41, -10.41, -10.79, -10.7, -11.07, -11.07, -11.16, -10.88, -11.23, -10.4, -10.75, -10.13, -9.21, -7.83, -6.46, -6.2, -5.69, -3.41, -0.69, -0.72, -1.6, -2.44, -2.5, -3.47, -3.81, -3.82, -3.14, -2.32, 0.0, 1.34, 1.88, 0.87, -0.0, -0.0, -0.0, -0.0, -0.0, -0.0, -0.0, -0.0, -0.0, -0.0, 2.21, 2.21, 3.58, 4.02, 4.02, 0.0, 0.0, 0.0, 0.0, 3.79, 0.0, 0.0, 0.0, 0.0, 0.0, 3.2, 4.0, 1.79, -1.26, -4.02, -9.76, -11.18, -10.8, -9.46, -7.59, -3.79, -0.0, 1.13, 0.59, -0.0, -0.0, -0.0, -5.36, -1.98, -2.26, -4.66, -5.03, -3.16, -3.14, -0.76, -4.11, -5.24, -4.98, -2.47, -2.44, -3.38, -3.32, -2.23, -2.86, -2.86, -10.3, -10.3, -10.3, -10.3, -10.3, -10.41, -10.41, -10.41, -10.79, -10.51, -11.07, -10.8, -11.16, -10.88, -10.88, -9.85, -10.4, -10.13, -8.23, -6.5, -6.15, -6.47, -6.6, -4.64, -2.82, -2.89, -3.91, -5.04, -5.31, -6.0, -6.15, -5.78, -5.21, -4.44, -3.0, 4.47, 2.23, 0.54, -0.59, -0.76, -0.53, -0.0, -0.0, -0.0, -0.0, -0.0, -0.0, 2.53, 2.53, 2.53, 4.02, 4.47, 4.47, 4.47, 5.36, 0.0, 0.0, 0.0, 0.0, 0.0, 0.0, 4.02, 4.02, 2.12, 4.0, 2.6, 0.0, -2.23, -8.0, -10.62, -7.94, -5.03, -1.33, 0.0, 0.0, -0.0, -0.0, -0.66, -2.16, -4.11, -4.65, -4.75, -6.01, -6.95, -7.56, -7.44, -6.82, -5.36, -7.74, -7.51, -5.84, -3.38, -3.55, -4.43, -3.72, -2.73, -3.14, -3.14, -10.3, -10.3, -10.3, -10.3, -10.3, -10.41, -10.41, -10.41, -10.51, -10.51, -10.51, -10.8, -10.8, -10.88, -11.23, -10.36, -10.09, -9.72, -7.9, -6.79, -7.13, -8.19, -8.93, -8.45, -9.44, -9.39, -8.97, -9.73, -9.62, -8.38, -6.67, -5.95, -4.99, -5.2, -5.69, 0.0, 1.14, 0.72, -0.0, -0.54, -0.55, -0.0, -0.0, -0.0, -0.0, -0.0, -0.0, 2.53, 2.53, 2.53, 2.53, 4.02, 4.47, 4.92, 2.68, 1.8, 0.0, 0.0, -1.6, 0.0, 0.0, 3.13, 1.9, 2.84, 2.6, 1.9, 0.0, -0.65, -0.63, 0.0, 2.33, 4.28, 5.07, 3.09, 0.0, -5.86, -7.47, -8.24, -5.06, -6.07, -6.23, -6.28, -6.32, -6.63, -6.79, -5.95, -2.98, -1.49, -4.12, -3.49, -4.93, -6.39, -6.32, -5.09, -4.93, -4.46, -3.16, -3.16, -10.3, -10.3, -10.3, -10.3, -10.68, -10.41, -10.41, -10.41, -10.51, -10.51, -10.51, -10.59, -10.59, -10.88, -11.28, -10.99, -10.09, -10.01, -9.71, -10.22, -10.47, -10.33, -10.71, -11.07, -12.01, -12.01, -11.06, -11.3, -10.73, -7.9, -6.32, -5.44, -5.44, -5.44, -5.93, -6.71, -0.0, -0.0, -0.0, -0.0, -0.0, -0.0, -0.0, -0.0, -0.0, -0.0, -0.0, -0.0, 2.21, 2.21, 2.53, 2.84, 4.47, 4.47, 5.36, 1.6, 1.98, 0.0, 0.0, -2.68, 0.0, 2.21, 1.6, -0.0, -0.0, -0.0, -0.0, 0.0, 2.41, 6.01, 9.08, 9.8, 7.89, 3.59, -1.04, -9.21, -12.03, -12.96, -6.17, -5.37, -6.71, -5.95, -5.69, 0.0, 4.74, 2.84, 1.4, 0.0, 0.0, -0.66, -3.79, -7.76, -7.4, -5.15, -4.93, -4.27, -4.09, -4.09, -10.3, -10.3, -10.3, -10.3, -10.68, -10.41, -10.41, -10.41, -10.51, -10.51, -10.51, -10.59, -10.59, -10.88, -10.94, -10.99, -10.36, -10.06, -11.03, -11.7, -11.68, -10.43, -10.13, -10.75, -11.38, -10.99, -9.49, -8.21, -6.01, -5.06, -4.74, -4.43, -4.74, -4.74, -6.13, -6.23, -6.26, -1.55, -0.0, -0.0, -0.0, -0.0, -0.0, -0.0, -0.0, -0.0, -0.0, -0.0, 2.21, 2.21, 2.53, 2.84, 4.02, 4.47, 4.92, 4.11, 4.11, 7.6, 0.0, -2.24, 0.0, 1.9, 1.24, 0.57, -0.0, 1.4, -0.0, -0.0, 3.13, 3.58, 5.29, 7.56, 6.2, 1.88, -6.73, -12.74, -15.36, -14.39, -13.01, -5.7, -4.46, -6.0, -0.0, 2.8, 4.74, 2.2, -0.0, -3.58, -3.16, -1.88, -4.87, -6.98, -5.37, -3.48, -4.47, -4.38, -4.24, -4.24, -10.3, -10.3, -10.3, -10.3, -10.68, -10.41, -10.41, -10.41, -10.51, -10.51, -10.51, -10.59, -10.65, -10.65, -10.69, -10.69, -10.36, -10.09, -11.05, -11.38, -10.69, -9.48, -8.59, -8.59, -9.8, -10.02, -8.76, -7.25, -5.76, -4.98, -4.14, -4.02, -4.11, -3.79, -4.6, -5.51, -5.26, -4.92, -2.2, -0.0, -0.0, -0.0, -0.0, -0.0, 1.3, 1.55, -0.0, 2.53, 1.9, 2.21, 2.53, 2.53, 4.02, 4.47, 4.92, 5.36, 4.47, 2.2, 0.0, 0.0, 0.0, 1.58, 1.6, 1.58, 1.6, 3.16, 0.0, -2.24, 0.0, 1.26, -0.0, -1.6, -1.83, -2.69, -3.04, -9.79, -13.82, -14.61, -13.58, -13.44, -7.27, -4.46, -1.98, -2.4, -5.2, -4.4, -4.34, -4.43, -6.82, -7.27, -5.94, -4.07, -2.51, 0.0, -4.02, -4.0, -4.4, -4.4, -10.3, -10.3, -10.3, -10.3, -10.3, -10.41, -10.41, -10.41, -10.51, -10.51, -10.51, -10.59, -10.65, -10.65, -10.69, -10.36, -10.36, -10.72, -11.06, -10.77, -10.41, -8.81, -8.46, -7.57, -8.15, -9.02, -8.85, -7.85, -7.01, -6.08, -4.8, -4.0, -3.4, -3.45, -5.01, -5.37, -5.2, -4.8, -5.36, -5.36, -4.11, -0.0, -0.0, -0.0, 1.84, 2.73, 3.79, 3.16, 2.53, 4.02, 4.02, 0.0, 0.0, 0.0, 4.47, 4.47, 2.24, -0.0, -0.0, 0.0, 0.0, 0.0, 0.0, 2.21, 3.16, 4.4, 4.02, 0.0, -2.24, 0.0, -2.68, -7.64, -5.35, -2.16, -0.0, -3.58, -8.85, -11.72, -12.42, -11.9, -11.87, -8.18, -4.71, -6.7, -7.37, -7.01, -7.15, -8.6, -8.63, -5.72, -3.91, -3.79, -1.8, 0.0, -2.84, -4.22, -5.2, -5.2, -10.3, -10.3, -10.3, -10.3, -10.3, -10.3, -10.41, -10.41, -10.15, -10.51, -10.23, -10.59, -10.3, -10.65, -10.36, -10.36, -10.69, -10.72, -10.75, -10.77, -10.13, -9.75, -8.83, -8.46, -8.64, -8.25, -8.31, -8.31, -7.85, -6.9, -6.56, -5.35, -4.4, -4.0, -4.71, -5.69, -5.93, -6.13, -5.36, -5.21, -6.0, -6.71, 0.0, -0.0, 2.8, 4.11, 4.11, 4.8, 4.4, 4.92, 4.47, 4.92, 0.0, -0.0, -0.0, 3.58, 3.58, 1.26, -0.63, -2.68, -1.6, -1.58, -1.9, 2.21, 4.24, 4.0, 4.02, 0.0, 0.0, -2.17, -5.2, -6.32, -5.32, -1.45, 0.0, -5.06, -2.21, -3.45, -7.15, -9.42, -11.5, -12.14, -11.18, -8.55, -7.2, -7.06, -8.05, -8.05, -4.92, -1.27, -0.0, 0.0, -1.84, -2.2, -2.84, -4.46, -5.2, -5.2, -10.3, -10.3, -10.3, -10.3, -10.3, -10.3, -10.41, -10.41, -10.15, -10.51, -10.51, -10.59, -10.3, -10.65, -10.36, -10.36, -10.69, -10.72, -11.06, -10.76, -10.47, -9.84, -9.48, -9.09, -8.97, -8.64, -7.99, -7.78, -7.93, -7.67, -7.28, -6.33, -5.63, -4.92, -5.46, -4.74, -5.44, -6.01, -5.69, -6.08, -5.37, -5.37, -5.37, 0.0, 0.0, 4.74, 6.0, 6.26, 6.26, 5.81, 5.36, 4.92, 0.0, -0.0, -0.0, 2.53, 2.21, 2.68, 0.0, -1.79, -3.13, -2.53, 0.0, 1.9, 2.4, 2.53, 2.84, 2.53, -0.0, -1.79, -4.11, -5.95, -4.68, -2.52, -1.61, 0.0, 1.5, -1.84, -2.79, -6.98, -11.6, -11.9, -12.72, -9.6, -3.22, -2.95, -5.01, -3.35, -1.4, -1.49, -2.84, -5.06, -5.1, -3.72, -3.63, -3.16, -4.66, -4.66, -10.55, -10.55, -10.3, -10.3, -10.3, -10.3, -10.41, -10.41, -10.41, -10.51, -10.51, -10.59, -10.3, -10.65, -10.36, -10.36, -10.4, -10.43, -10.45, -10.76, -10.47, -10.13, -9.48, -9.09, -9.39, -9.02, -8.69, -8.05, -7.78, -7.4, -7.14, -7.18, -6.5, -6.04, -5.62, -5.18, -5.28, -5.46, -6.11, -5.72, -5.59, -6.01, -6.01, -5.69, 0.0, 0.0, 7.6, 7.15, 6.71, 6.26, 5.81, 4.92, 3.16, 1.13, 0.57, 0.6, -0.0, 1.58, 1.34, 0.0, -2.24, -3.58, 0.0, 1.58, 0.0, -0.0, -0.0, -0.0, -0.95, -2.24, -3.6, -3.78, -5.37, -4.34, -2.28, 0.0, 1.33, 0.0, -2.2, -4.74, -8.38, -12.42, -13.15, -10.41, -3.2, -3.72, -3.16, -1.6, -1.49, -2.15, -3.58, -4.47, -6.28, -6.01, -4.74, -3.48, -4.57, -4.57, -10.55, -10.55, -10.3, -10.3, -10.3, -10.3, -10.04, -10.41, -10.41, -10.51, -10.51, -10.23, -10.59, -10.3, -10.65, -10.36, -10.4, -10.43, -10.75, -10.45, -10.13, -9.84, -9.49, -9.77, -9.39, -9.02, -8.64, -8.11, -8.15, -7.51, -6.84, -6.87, -6.9, -6.24, -6.54, -5.85, -5.7, -5.28, -5.21, -5.63, -5.2, -5.59, -5.1, -3.8, -2.54, 0.0, 0.0, 3.4, 5.06, 6.71, 5.81, 5.36, 3.16, 2.84, 1.4, 0.57, -0.0, -0.0, 0.95, -0.0, -1.26, -3.13, 0.0, 0.0, 0.0, 0.0, 0.0, -0.0, -0.95, -2.24, -2.91, -3.16, -4.65, -5.09, -3.79, -3.77, -3.25, -2.39, -2.2, -3.16, -5.69, -10.85, -13.13, -11.62, -1.47, -3.77, -2.48, -1.13, -1.6, -2.53, -4.38, -5.36, -4.46, -6.18, -6.18, -5.24, -4.98, -4.98, -10.55, -10.55, -10.3, -10.3, -10.3, -10.3, -10.04, -10.41, -10.41, -10.41, -10.51, -10.23, -10.59, -10.3, -10.65, -10.36, -10.4, -10.43, -10.75, -10.45, -10.13, -9.84, -9.49, -9.49, -9.42, -9.44, -8.78, -8.51, -7.85, -7.48, -7.51, -6.84, -6.87, -6.9, -6.24, -6.27, -6.17, -5.46, -5.28, -6.04, -5.63, -5.2, -4.71, -4.22, -2.26, 0.0, 0.0, 0.0, 0.0, 0.0, 0.0, -0.0, 3.48, 4.0, 1.98, 1.4, 0.8, 0.8, 0.8, 0.8, -0.0, -0.0, 0.0, 0.0, 0.0, 0.0, 0.0, -0.0, -0.0, -1.26, -2.17, -2.48, -3.91, -6.01, -9.27, -9.65, -8.72, -5.95, -4.22, -3.22, -2.84, -9.53, -12.45, -13.67, -0.0, -0.0, -0.66, -1.8, -4.09, -4.77, -5.36, -6.26, -6.36, -5.82, -6.6, -6.7, -5.95, -5.95, -10.55, -10.55, -10.3, -10.3, -10.3, -10.3, -10.04, -10.41, -10.41, -10.41, -10.15, -10.23, -10.59, -10.3, -10.65, -10.36, -10.4, -10.43, -10.43, -10.13, -9.84, -10.13, -9.79, -9.79, -9.44, -9.16, -8.78, -8.11, -8.15, -7.48, -7.48, -7.51, -6.84, -6.87, -6.9, -6.54, -6.27, -6.17, -6.05, -5.64, -6.04, -5.63, -5.2, -4.46, -4.29, -2.4, 0.0, -1.4, -2.4, -4.92, -4.92, -0.0, -0.0, 3.16, 3.6, 2.98, 1.88, 1.84, 1.2, 0.65, -0.0, -1.2, -1.79, -1.6, -0.0, 1.58, -0.0, -0.0, -0.0, -2.24, -3.53, -3.78, -3.15, -3.16, -7.51, -10.65, -10.8, -8.43, -4.47, -3.2, -1.98, -7.47, -10.94, -13.07, -9.17, 3.45, 1.27, -0.0, -3.48, -6.71, -7.6, -8.05, -8.33, -6.8, -7.4, -7.37, -6.99, -6.99, -10.16, -10.16, -10.3, -10.3, -10.3, -10.3, -10.3, -10.04, -10.41, -10.41, -10.15, -10.15, -10.23, -10.3, -10.3, -10.36, -10.4, -10.4, -10.13, -10.13, -9.84, -9.84, -9.5, -9.5, -9.16, -9.46, -8.81, -8.15, -7.73, -7.73, -7.73, -7.73, -7.51, -7.14, -6.87, -6.5, -6.54, -6.58, -6.17, -6.05, -5.64, -5.46, -5.63, -4.94, -4.22, -4.46, -3.8, -3.45, -2.84, -3.58, -3.58, -3.58, 0.0, 4.47, 4.02, 3.2, 2.21, 2.23, 1.76, 0.61, -0.0, -1.24, -1.86, -0.6, 1.26, 1.79, -0.0, -2.12, -2.12, -2.84, -4.52, -5.02, -3.15, -0.82, -2.47, -7.15, -9.34, -8.93, -6.26, -4.92, -3.82, -4.46, -9.09, -11.99, -12.72, 2.28, 4.2, 1.47, 0.96, 0.98, -0.0, -4.92, -5.94, -7.21, -7.95, -7.95, -7.53, -7.53, -10.16, -10.16, -9.92, -10.3, -10.3, -10.3, -10.3, -10.04, -10.04, -10.41, -10.41, -10.15, -10.51, -10.3, -10.3, -10.09, -10.12, -10.12, -9.82, -9.82, -9.82, -9.5, -9.5, -9.8, -9.16, -9.17, -8.53, -8.17, -6.94, -6.8, -7.85, -8.15, -8.17, -7.24, -6.87, -6.5, -6.81, -6.54, -6.17, -6.51, -5.78, -5.64, -5.21, -4.74, -4.44, -5.46, -5.21, -4.14, -4.43, -4.4, -4.0, -2.53, 0.0, 0.0, 3.13, 3.13, 2.4, 1.88, 1.11, -0.0, -0.61, -1.61, -0.57, 0.6, 2.12, 2.68, 1.34, -2.12, -4.24, -4.89, -3.72, -4.02, -3.95, -2.26, -0.81, -4.07, -7.5, -7.44, -8.0, -9.83, -7.6, 0.0, -2.2, -8.24, -10.99, -12.72, 3.04, 4.13, 2.47, 3.22, 2.84, 1.4, -3.13, -3.6, -7.74, -7.81, -7.52, -7.52, -10.16, -10.16, -10.16, -9.76, -10.13, -10.13, -10.13, -9.86, -9.86, -9.86, -10.23, -9.94, -9.94, -10.01, -10.06, -10.09, -9.8, -9.8, -9.8, -9.82, -9.5, -9.21, -9.21, -9.5, -9.46, -9.48, -8.83, -8.83, -8.17, -7.78, -7.61, -7.61, -7.54, -7.54, -6.87, -6.61, -6.5, -6.54, -6.44, -6.17, -6.05, -5.64, -5.64, -5.21, -4.98, -4.2, -4.88, -4.0, -4.14, -4.29, -3.47, -2.98, -2.0, 0.0, 0.0, 0.0, 2.68, 1.24, 0.59, -0.0, -1.88, -1.24, -0.0, 1.49, 2.4, 3.07, 2.68, 0.0, -2.5, -2.86, -2.24, -2.4, -3.58, -4.46, -3.96, -3.3, -4.2, -3.2, -3.16, -2.4, -2.83, 0.0, 0.0, 0.0, -4.88, -9.08, -5.6, 2.93, 4.0, 3.97, 3.79, 2.21, 1.9, -3.58, -4.85, -6.64, -6.71, -6.71, -10.02, -10.02, -10.02, -9.76, -9.76, -10.13, -10.13, -9.86, -9.86, -9.86, -9.86, -9.94, -9.94, -10.01, -10.06, -9.77, -9.77, -9.8, -9.5, -9.5, -9.5, -9.5, -9.5, -8.87, -9.17, -9.48, -8.83, -9.17, -9.16, -8.23, -7.51, -7.56, -7.18, -6.87, -6.87, -6.61, -6.5, -6.24, -6.11, -6.17, -6.05, -6.14, -5.64, -5.46, -4.56, -5.21, -4.4, -4.66, -3.52, -3.8, -3.91, -3.0, -1.52, -1.84, 0.0, 0.0, 0.0, 0.0, -0.0, -0.0, -0.99, -0.0, 0.8, 1.9, 2.23, 2.4, 3.04, 2.0, 0.0, -1.2, -1.24, -2.23, -3.58, -8.05, -8.45, -4.91, -1.22, 0.0, 1.74, 2.12, 0.0, 0.0, 0.0, 0.0, -1.91, -3.96, -6.0, 0.0, 7.9, 6.32, 3.49, 2.53, 1.58, -2.21, -4.47, -6.71, -7.15, -7.15, -10.02, -10.02, -10.02, -9.76, -9.76, -9.76, -9.76, -9.86, -9.86, -9.86, -9.86, -9.94, -9.94, -9.66, -9.66, -9.72, -9.48, -9.48, -9.19, -9.5, -9.21, -9.21, -8.87, -8.87, -9.17, -8.83, -8.83, -9.17, -8.87, -8.23, -7.78, -7.46, -7.46, -7.18, -6.87, -6.2, -6.2, -6.24, -6.11, -6.17, -5.7, -5.78, -5.64, -5.06, -5.46, -5.21, -5.21, -4.2, -4.66, -4.44, -3.8, -3.6, -2.82, -1.73, -1.98, 0.0, 0.0, 0.0, 0.0, 0.0, -0.0, -0.0, 1.2, 1.9, 1.58, 1.9, 1.58, 2.0, 0.0, -1.26, -2.21, -3.32, -4.15, -8.31, -8.45, -5.28, 0.0, 5.8, 5.8, 3.6, 0.0, -3.32, -3.32, -3.44, -2.06, -1.38, -1.47, 0.0, 2.1, 6.36, 4.38, 3.45, 2.15, 1.2, -3.9, -5.31, -7.15, -7.15, -10.02, -10.02, -10.02, -9.76, -9.76, -9.76, -9.76, -9.5, -9.86, -9.86, -9.86, -9.59, -9.94, -9.94, -9.66, -9.76, -9.17, -9.48, -9.19, -9.19, -9.5, -8.87, -8.87, -9.17, -8.53, -8.83, -8.53, -8.87, -8.87, -8.24, -7.78, -7.4, -7.14, -6.76, -6.76, -6.2, -6.5, -5.8, -5.8, -5.85, -5.7, -5.78, -5.04, -5.06, -5.06, -4.99, -4.99, -5.21, -4.2, -4.66, -4.44, -3.8, -2.54, -2.82, -1.73, -2.12, -1.84, 0.0, 0.0, 0.0, 0.0, 1.49, 0.85, 1.0, 0.6, 1.26, 1.6, 2.0, 1.79, -1.34, -2.54, -3.53, -3.74, -4.4, -4.49, -2.93, 0.0, 3.14, 3.09, 0.0, -2.28, -4.58, -6.44, -4.8, -2.1, 0.0, 0.0, 0.0, 0.76, 1.99, 4.46, 4.77, 3.35, 2.21, -1.6, -4.82, -6.21, -6.21, -10.02, -10.02, -10.02, -9.76, -9.76, -9.76, -9.76, -9.5, -9.5, -9.86, -9.86, -9.59, -9.37, -9.71, -9.42, -9.42, -9.46, -9.17, -9.17, -8.87, -8.87, -8.59, -8.87, -8.53, -8.83, -8.83, -8.53, -8.53, -8.53, -8.17, -8.17, -7.51, -7.14, -7.14, -6.45, -6.76, -6.04, -6.04, -5.8, -5.62, -5.39, -5.46, -5.04, -4.0, -4.0, -4.4, -4.6, -4.99, -4.78, -4.2, -4.44, -3.35, -3.6, -2.4, -2.82, -1.73, -1.52, -1.84, 0.0, 0.0, 0.0, 0.0, 1.0, 1.24, 0.6, 2.24, 2.0, 2.54, 2.24, 0.0, -1.79, -2.63, -2.12, -1.32, -1.77, -3.68, -3.82, -4.81, -5.26, -5.98, -4.98, -5.9, -7.2, -5.69, 0.0, 0.0, 1.07, 0.7, 1.35, 1.7, 2.16, 3.79, 4.47, 3.16, -0.0, -4.24, -5.81, -5.81, -9.63, -9.63, -9.63, -9.38, -9.58, -9.58, -9.58, -9.3, -9.3, -9.3, -9.66, -9.37, -9.37, -9.37, -9.42, -9.42, -9.13, -8.87, -8.87, -8.58, -8.58, -8.58, -8.53, -8.53, -8.83, -8.53, -8.53, -8.53, -7.87, -8.17, -7.82, -7.82, -7.24, -6.87, -6.45, -6.45, -6.04, -6.04, -5.54, -5.62, -5.39, -4.96, -4.8, -3.8, -3.15, -4.25, -5.35, -5.52, -4.6, -4.78, -4.0, -4.21, -3.17, -3.4, -2.4, -2.66, -1.63, -1.41, 0.0, 0.0, 0.0, 0.0, 0.0, 0.6, 0.95, 2.24, 2.68, 2.24, 2.24, 1.79, 0.0, -1.86, -2.24, -2.29, -2.63, -3.34, -5.52, -8.42, -9.25, -9.17, -6.3, -5.63, -5.69, 0.0, 2.2, 1.08, 0.81, 0.76, 1.47, 1.47, 1.47, 1.05, 0.0, 0.0, 0.0, -4.47, -4.92, -5.81, -9.63, -9.63, -9.48, -9.21, -9.21, -9.21, -9.58, -9.58, -9.3, -9.3, -9.3, -9.02, -9.37, -9.37, -9.08, -9.08, -8.85, -8.85, -8.56, -8.87, -8.24, -8.24, -8.24, -8.24, -8.17, -8.24, -8.24, -7.87, -8.17, -7.51, -7.82, -7.54, -7.54, -6.58, -5.92, -6.2, -5.75, -6.04, -5.54, -5.62, -5.09, -5.18, -4.73, -4.37, -4.44, -4.44, -5.4, -5.75, -5.29, -4.56, -4.34, -3.8, -3.17, -2.99, -2.4, -2.26, -2.49, -1.3, -1.19, 0.0, 0.0, 0.0, 0.0, 0.0, 1.58, 2.4, 1.2, 1.34, 1.79, 1.79, 1.34, -2.12, -3.58, -4.22, -3.77, -0.93, -0.93, -4.0, -6.7, -7.03, -5.86, -3.11, 0.0, 2.8, 1.83, 1.84, 0.95, 0.95, 1.52, 1.52, 1.47, 0.88, 0.0, -3.2, -4.43, -4.8, -4.46, -4.92, -9.48, -9.48, -9.48, -9.48, -9.21, -9.21, -9.21, -9.21, -9.3, -9.3, -9.3, -9.02, -9.02, -9.37, -9.08, -8.82, -8.82, -8.53, -8.56, -8.24, -7.96, -7.96, -7.87, -8.17, -8.17, -7.87, -7.87, -7.87, -7.89, -7.51, -7.54, -7.54, -7.26, -6.87, -6.61, -6.2, -6.2, -5.75, -6.04, -5.32, -5.62, -4.87, -4.96, -4.73, -5.28, -5.2, -5.35, -4.83, -4.71, -4.12, -4.12, -3.8, -3.6, -2.99, -2.99, -2.26, -2.12, -1.14, -1.3, 0.0, 0.0, 0.0, 0.0, 0.0, 0.0, 0.0, 1.79, 3.13, 1.79, 1.34, 1.34, -2.24, -4.47, -5.51, -3.16, -1.26, 0.0, -0.89, -3.21, -4.34, -2.8, 0.0, 2.2, 2.82, 2.09, 1.84, 0.89, 0.89, 0.94, 0.89, 0.83, 0.89, 0.0, -1.95, -4.46, -5.06, -4.74, -4.74, -9.48, -9.48, -9.48, -9.48, -9.21, -9.21, -9.21, -9.21, -8.73, -8.73, -8.73, -8.78, -8.78, -8.78, -8.82, -8.82, -8.82, -8.53, -8.53, -8.24, -8.24, -7.96, -7.6, -7.89, -7.87, -7.87, -7.6, -7.6, -7.51, -7.51, -7.24, -7.54, -6.87, -6.61, -6.61, -6.2, -6.2, -5.52, -5.8, -5.32, -5.32, -5.39, -4.87, -4.87, -5.3, -5.72, -4.92, -3.6, -3.69, -3.79, -4.03, -3.6, -3.6, -3.6, -2.99, -2.99, -2.12, -2.32, -2.16, -1.05, 0.0, 0.0, 0.0, 0.0, 0.0, 0.0, 0.0, 2.68, 1.79, 1.79, 0.89, -2.24, -4.47, -4.88, -4.66, -4.89, -3.32, -2.6, -3.27, -2.51, 0.0, 2.51, 3.8, 3.82, 2.23, 1.16, 0.94, 0.0, 0.0, 0.0, 0.0, 0.0, 0.0, -1.58, -6.79, -6.79, -6.79, -6.79, -9.48, -9.48, -9.48, -9.48, -9.21, -9.21, -9.01, -9.01, -8.73, -8.73, -8.73, -8.45, -8.78, -8.78, -8.5, -8.5, -8.82, -8.53, -8.24, -7.95, -8.24, -7.61, -7.89, -7.6, -7.6, -7.6, -7.6, -7.51, -7.51, -7.24, -7.24, -7.26, -6.87, -6.61, -6.61, -6.2, -5.95, -5.95, -5.52, -5.8, -5.1, -5.1, -5.1, -4.6, -4.8, -4.4, -3.69, -3.7, -3.8, -3.27, -2.9, -3.2, -3.4, -3.4, -3.4, -2.99, -3.2, -3.0, -2.32, -2.16, -1.05, 0.0, 0.0, 0.0, 0.0, 0.0, 3.13, 2.68, 1.79, 1.34, 0.45, -2.24, -4.47, -5.2, -7.28, -8.14, -7.06, -5.46, -4.66, 0.0, 7.27, 8.67, 7.43, 4.74, 2.72, 1.33, 1.05, 0.0, 0.0, 0.0, 0.0, 0.0, 0.0, -4.96, -8.0, -7.67, -7.67, -7.67, -9.48, -9.48, -9.48, -9.1, -8.65, -9.01, -8.65, -8.65, -8.73, -8.73, -8.73, -8.45, -8.45, -8.78, -8.5, -8.5, -8.5, -8.53, -8.24, -7.95, -7.95, -7.61, -7.61, -7.33, -7.6, -7.6, -7.6, -7.51, -7.24, -7.24, -7.24, -6.97, -6.87, -6.61, -6.61, -6.2, -5.95, -6.24, -5.56, -5.56, -5.56, -5.1, -5.1, -4.6, -4.6, -4.05, -3.87, -3.37, -3.44, -2.9, -2.99, -2.82, -2.9, -3.2, -3.4, -3.77, -2.82, -3.0, -2.8, -2.32, -1.14, -1.05, 0.0, 0.0, 0.0, 0.0, 3.13, 0.95, 1.79, 1.34, 0.0, -2.0, -3.97, -5.16, -5.6, -5.05, -4.46, -3.35, -1.39, 6.87, 12.19, 12.78, 8.84, 4.86, 3.01, 1.39, 1.33, 0.0, 0.0, 0.0, 0.0, -0.89, -1.01, -3.15, -6.79, -7.28, -7.28, -7.28, -9.48, -9.48, -9.1, -8.93, -8.93, -8.65, -8.65, -8.65, -8.38, -8.38, -8.73, -8.73, -8.45, -8.45, -8.78, -8.5, -8.22, -8.22, -8.24, -8.24, -7.95, -7.61, -7.61, -7.61, -7.33, -7.33, -7.33, -7.24, -7.24, -7.24, -6.97, -6.58, -6.87, -6.61, -6.61, -5.95, -5.95, -6.24, -5.98, -5.56, -5.56, -5.1, -5.1, -4.6, -4.6, -4.05, -3.87, -3.16, -3.21, -3.21, -2.69, -2.75, -2.6, -2.66, -2.9, -3.2, -3.55, -2.82, -3.0, -3.22, -2.16, -1.14, 0.0, 0.0, -0.98, 0.0, 3.13, 1.34, 1.34, 0.89, -1.34, -2.0, -2.8, -3.07, -2.53, 0.0, 0.0, 0.0, 3.11, 8.47, 12.27, 11.17, 7.14, 3.56, 2.72, 1.39, 0.0, 0.0, 0.0, -1.84, -1.4, -1.35, -1.72, -2.26, -4.75, -6.52, -6.52, -6.52, -9.1, -9.1, -9.1, -8.93, -8.93, -8.65, -8.65, -8.65, -8.65, -8.38, -8.38, -8.49, -8.19, -8.19, -8.19, -8.22, -8.22, -8.22, -7.93, -7.93, -7.61, -7.61, -7.61, -7.61, -7.33, -7.33, -7.33, -7.24, -7.24, -6.97, -6.97, -6.58, -6.87, -6.61, -6.61, -6.2, -5.95, -6.24, -6.24, -5.56, -5.56, -5.39, -5.39, -5.15, -4.4, -4.4, -3.87, -3.7, -3.75, -3.21, -3.05, -2.37, -2.54, -2.6, -2.66, -2.9, -3.2, -3.55, -3.33, -3.0, -2.32, -2.16, -1.05, -0.96, -0.88, 0.0, 0.0, 0.0, 0.0, -1.34, -1.79, -2.24, -2.24, -2.0, 0.0, 1.58, 1.4, 2.8, 5.77, 7.76, 9.38, 7.66, 5.6, 6.28, 5.78, 2.54, 0.0, -1.09, -1.11, -1.7, -1.41, -2.2, -2.11, -2.47, -3.72, -5.75, -5.75, -5.75, -9.1, -9.1, -9.1, -8.93, -8.93, -8.93, -8.65, -8.44, -8.44, -8.15, -8.15, -8.15, -8.19, -8.19, -8.19, -7.9, -7.9, -8.22, -8.22, -7.93, -7.93, -7.61, -7.61, -7.61, -7.33, -7.33, -7.24, -7.24, -6.97, -6.97, -6.97, -6.58, -6.87, -6.61, -6.61, -6.2, -5.95, -6.24, -6.24, -5.56, -5.85, -5.85, -5.15, -5.15, -4.66, -4.66, -3.93, -3.93, -3.75, -3.75, -3.56, -3.05, -3.09, -2.92, -2.44, -2.44, -2.49, -3.0, -3.33, -3.11, -2.8, -2.16, -1.99, -0.96, -0.88, 0.0, 0.0, 0.0, 0.0, 0.0, -1.34, -1.34, -1.6, -0.0, -0.0, 1.79, 1.2, 2.5, 5.2, 6.21, 5.84, 4.81, 7.4, 8.99, 6.99, 3.12, 0.0, -1.72, -0.67, -0.67, -1.23, -2.0, -2.2, -2.8, -4.19, -6.4, -6.4, -6.4, -9.35, -9.35, -8.93, -8.93, -8.93, -8.93, -8.44, -8.44, -8.44, -8.15, -8.15, -8.15, -7.86, -8.19, -8.19, -7.9, -7.9, -7.9, -8.22, -7.93, -7.61, -7.33, -7.61, -7.61, -7.61, -7.61, -7.24, -6.97, -6.97, -6.97, -6.97, -6.58, -6.87, -6.61, -6.61, -6.2, -5.95, -6.24, -6.24, -5.98, -5.85, -5.85, -5.39, -5.15, -5.15, -4.66, -4.45, -3.93, -3.93, -3.75, -3.56, -3.8, -3.6, -3.09, -2.92, -2.75, -2.96, -3.0, -3.04, -2.8, -3.11, -2.6, -2.4, -1.55, -0.88, -1.8, -2.21, 0.0, -0.0, -0.0, -1.79, -1.79, -0.8, -0.0, -0.0, -0.0, 2.24, 2.24, 3.07, 3.49, 3.22, 3.99, 7.14, 7.73, 5.49, 1.96, -1.55, -2.07, -1.23, -1.3, -1.41, -1.35, -2.2, -2.6, -3.91, -6.51, -6.51, -6.51, -9.2, -9.2, -9.2, -8.93, -8.93, -8.93, -8.44, -8.44, -8.44, -8.15, -8.15, -8.15, -7.86, -7.86, -8.19, -7.9, -7.9, -7.9, -7.9, -7.61, -7.61, -7.61, -7.33, -7.61, -7.61, -7.61, -7.24, -6.97, -6.97, -6.97, -6.97, -6.58, -6.61, -6.61, -6.61, -6.34, -5.95, -6.24, -6.24, -5.98, -6.27, -5.85, -5.85, -5.15, -5.15, -4.45, -4.45, -4.45, -3.93, -3.75, -4.0, -3.8, -3.8, -3.4, -3.4, -2.92, -2.96, -2.96, -3.0, -3.04, -3.08, -2.88, -2.98, -2.4, -1.83, -2.0, -3.2, -2.68, 0.0, 0.0, 0.0, 0.0, -0.8, -0.0, -0.0, -0.0, 0.8, 1.6, 1.79, 1.9, 1.49, 3.35, 4.19, 4.18, 2.02, 0.0, -2.6, -3.07, -3.14, -2.22, -2.2, -2.12, -2.66, -2.98, -4.11, -5.2, -5.2, -5.2, -9.2, -9.2, -9.2, -8.93, -8.93, -8.73, -8.73, -8.44, -8.44, -8.44, -8.15, -8.15, -8.15, -7.86, -8.19, -8.19, -7.9, -7.9, -7.9, -7.61, -7.61, -7.61, -7.33, -7.33, -7.61, -7.61, -6.97, -6.97, -6.97, -6.97, -6.97, -6.98, -6.61, -6.61, -6.61, -6.34, -5.95, -6.24, -6.24, -5.98, -6.27, -5.85, -5.85, -5.6, -5.15, -4.92, -4.45, -4.45, -4.45, -4.24, -4.5, -4.28, -4.28, -4.05, -3.4, -3.64, -3.64, -3.42, -3.0, -3.0, -2.82, -3.38, -3.12, -2.98, -2.76, -3.48, -3.6, -3.13, -1.79, -1.7, -1.2, 0.0, 0.0, 0.0, -0.0, -0.0, -0.0, 0.54, 0.6, 0.0, 0.99, 2.15, 2.3, 1.0, -1.04, -1.17, -2.4, -3.32, -3.82, -3.88, -3.79, -4.03, -3.64, -2.73, -3.48, -4.29, -4.29, -4.29, -9.2, -9.2, -9.2, -8.93, -8.73, -8.73, -8.73, -8.44, -8.44, -8.44, -8.15, -8.15, -8.15, -7.86, -7.86, -8.19, -7.9, -7.9, -7.6, -7.91, -7.61, -7.61, -7.61, -7.33, -7.33, -7.33, -6.97, -6.97, -6.97, -6.97, -6.98, -6.98, -6.61, -6.61, -6.61, -6.34, -5.95, -5.95, -5.98, -5.98, -5.98, -6.27, -5.6, -5.6, -5.6, -4.92, -4.92, -4.92, -4.45, -4.45, -4.5, -4.5, -4.28, -4.05, -4.32, -4.08, -4.08, -3.42, -3.42, -3.45, -3.47, -3.49, -3.38, -3.72, -4.11, -4.54, -4.24, -3.58, -3.13, -2.4, -1.9, -2.23, -2.4, -1.49, -1.58, -0.0, -0.0, 0.54, -0.0, 0.0, 0.0, 0.99, 0.79, -2.09, -2.05, -2.35, -3.25, -4.92, -3.58, -3.87, -4.27, -5.06, -4.29, -3.07, -2.68, -3.16, -3.16, -3.16, -9.2, -9.2, -9.2, -8.93, -8.73, -8.73, -8.73, -8.44, -8.08, -8.08, -7.81, -7.81, -8.15, -7.86, -7.86, -8.19, -7.9, -7.9, -7.9, -7.6, -7.61, -7.61, -7.61, -7.33, -7.33, -7.33, -6.97, -6.97, -6.97, -7.26, -6.98, -6.98, -6.61, -6.61, -6.61, -6.34, -6.34, -5.95, -5.98, -5.98, -5.98, -6.27, -6.0, -5.6, -5.6, -5.34, -4.92, -4.69, -4.92, -4.92, -4.69, -4.96, -4.46, -4.46, -4.08, -4.08, -4.36, -4.36, -4.1, -3.45, -3.45, -3.47, -4.07, -4.43, -4.01, -4.43, -4.84, -5.02, -3.13, -2.68, -2.8, -3.2, -3.58, -2.6, -1.86, -1.79, -0.0, -0.57, -0.63, 0.0, 0.0, 0.0, 0.0, -0.99, -0.98, -1.06, -2.1, -5.95, -3.32, -3.58, -4.11, -5.06, -5.37, -3.22, -2.48, -3.16, -3.16, -3.16, -9.2, -9.2, -9.2, -9.02, -8.73, -8.73, -8.73, -8.08, -8.08, -8.08, -7.81, -7.81, -8.15, -7.86, -7.86, -7.86, -8.19, -7.9, -7.9, -7.6, -7.61, -7.61, -7.61, -7.61, -7.33, -7.33, -7.33, -6.97, -7.26, -6.98, -6.98, -6.98, -6.98, -6.61, -6.34, -6.34, -6.34, -6.63, -5.98, -5.98, -5.98, -6.27, -6.0, -6.0, -5.34, -5.34, -5.34, -5.09, -5.09, -4.92, -4.69, -4.96, -4.71, -4.46, -4.73, -4.47, -4.75, -4.36, -4.36, -4.1, -3.85, -4.12, -4.12, -4.43, -4.74, -4.74, -5.46, -5.05, -3.07, -2.6, -2.21, 0.0, -3.13, -3.13, -2.24, -2.24, -2.23, -2.91, -2.63, -2.12, -1.7, -1.79, -0.82, 0.0, 0.0, 0.0, -1.67, -4.8, -3.2, -4.02, -5.59, -6.18, -5.03, -3.47, -1.55, -3.48, -3.48, -3.48, -8.82, -8.82, -8.65, -9.02, -8.73, -8.37, -8.37, -8.08, -8.08, -8.08, -7.81, -8.15, -8.15, -7.86, -7.86, -7.86, -8.19, -7.9, -7.9, -7.9, -8.22, -7.61, -7.61, -7.61, -7.61, -7.61, -7.33, -7.26, -7.26, -6.98, -6.98, -6.98, -6.98, -6.61, -6.34, -6.34, -6.34, -6.63, -6.35, -6.35, -6.35, -6.27, -6.0, -6.0, -6.0, -6.01, -5.63, -5.34, -5.09, -5.34, -5.34, -5.36, -5.1, -5.1, -4.73, -4.73, -5.03, -4.75, -4.75, -4.1, -4.1, -4.39, -4.12, -4.74, -5.09, -5.09, -5.09, -5.46, -5.6, -3.6, -1.9, 0.0, -2.24, -2.97, -2.24, -1.79, -2.24, -3.97, -3.87, -3.39, -3.07, -3.32, -2.79, -2.06, -1.07, -1.09, -1.01, -4.47, -1.4, -4.02, -5.29, -6.13, -5.06, -3.72, -3.79, -4.11, -4.11, -4.11, -8.82, -8.82, -8.65, -8.65, -8.37, -8.37, -8.37, -8.08, -8.08, -8.08, -7.81, -8.15, -8.15, -7.86, -7.86, -7.86, -8.19, -7.9, -7.9, -7.9, -8.22, -7.93, -7.61, -7.61, -7.61, -7.61, -7.61, -7.61, -7.32, -6.98, -6.98, -6.98, -6.98, -6.98, -6.7, -6.34, -6.34, -6.63, -6.63, -6.35, -6.64, -6.64, -6.35, -6.35, -6.0, -6.3, -6.01, -6.01, -5.45, -5.34, -5.09, -5.36, -5.1, -5.1, -5.38, -4.73, -4.73, -5.03, -5.05, -5.05, -4.75, -4.39, -4.39, -4.71, -5.38, -5.72, -5.43, -5.72, -5.69, -4.15, -2.54, -2.0, -1.79, -2.6, -1.9, -1.79, -1.6, -3.58, -4.3, -4.73, -4.47, -4.43, -4.0, -4.29, -3.7, -2.17, -1.84, 0.0, -0.0, -2.21, -4.02, -3.95, -4.8, -5.06, -5.6, -4.02, -4.02, -4.02, -8.82, -8.82, -8.65, -8.65, -8.37, -8.37, -8.37, -8.08, -8.08, -8.08, -7.81, -8.15, -8.15, -8.15, -7.86, -8.19, -8.19, -8.19, -7.9, -7.9, -8.22, -8.22, -7.93, -7.61, -7.61, -7.61, -7.61, -7.61, -7.32, -7.32, -6.98, -6.98, -6.98, -6.7, -6.7, -6.7, -6.98, -6.98, -6.98, -6.69, -6.97, -6.97, -6.64, -6.35, -6.65, -6.65, -6.01, -6.01, -5.72, -5.72, -5.09, -5.36, -5.36, -5.1, -5.38, -5.1, -4.73, -5.03, -5.03, -5.05, -4.75, -4.75, -4.75, -4.75, -5.06, -5.38, -5.72, -5.72, -6.07, -4.98, -3.95, -2.68, -2.24, -2.4, -3.2, -3.13, -2.6, -2.6, -4.43, -4.77, -4.88, -4.47, -4.73, -5.15, -5.72, -5.21, -3.8, -3.72, -0.0, 2.53, -1.9, -3.13, -3.95, -4.8, -4.02, 0.0, 0.0, 0.0, -8.82, -8.82, -8.65, -8.65, -8.37, -8.37, -8.37, -8.08, -8.08, -8.08, -7.81, -8.15, -8.15, -8.15, -7.86, -8.19, -8.19, -8.19, -7.9, -7.9, -8.22, -8.22, -8.22, -7.93, -7.93, -7.61, -7.61, -7.61, -7.32, -7.32, -7.32, -7.32, -7.27, -6.98, -6.98, -6.98, -6.98, -6.98, -6.98, -6.98, -6.97, -6.97, -7.27, -6.95, -6.65, -6.65, -6.34, -6.34, -6.01, -6.01, -5.72, -5.36, -5.36, -5.36, -5.38, -5.38, -5.1, -5.03, -5.03, -5.05, -5.05, -5.05, -4.75, -4.75, -5.06, -5.38, -5.38, -5.72, -6.32, -6.25, -5.94, -3.13, -3.13, -2.68, -3.13, -4.34, -3.58, -2.68, -3.07, -4.11, -4.3, -4.47, -4.73, -5.82, -6.64, -7.15, -6.2, -5.86, -6.01, 5.69, 3.48, -2.21, -3.13, -3.13, 0.0, -0.0, -0.0, -0.0, -8.43, -8.43, -8.27, -8.37, -8.37, -8.37, -8.37, -8.08, -8.08, -8.08, -8.15, -8.15, -8.15, -8.15, -7.86, -8.19, -8.19, -8.19, -8.19, -7.9, -8.22, -8.22, -8.22, -8.22, -7.93, -7.93, -7.61, -7.61, -7.61, -7.32, -7.6, -7.6, -7.6, -7.6, -7.6, -6.98, -6.98, -6.98, -6.98, -6.98, -7.28, -6.97, -7.27, -6.95, -6.95, -6.95, -6.65, -6.34, -6.34, -6.01, -5.72, -5.72, -5.36, -5.36, -5.38, -5.38, -5.38, -5.38, -5.03, -5.03, -5.05, -5.37, -5.37, -5.37, -5.05, -5.68, -6.0, -6.0, -6.35, -6.32, -6.13, -3.07, -3.13, -3.6, 0.0, -3.13, -3.9, -2.4, -3.07, -4.0, -4.11, -4.47, -5.32, -5.82, -5.82, -6.5, -6.45, -5.95, -5.06, -4.4, 0.0, 2.8, 1.6, -0.0, -0.0, -0.0, -0.0, -0.0, -8.43, -8.43, -8.43, -8.18, -8.0, -8.37, -8.37, -8.08, -8.08, -8.08, -8.44, -8.15, -8.15, -8.15, -8.15, -8.19, -8.19, -8.19, -8.19, -8.19, -8.22, -8.22, -8.22, -8.22, -8.22, -8.22, -7.93, -7.93, -7.61, -7.6, -7.6, -7.6, -7.6, -7.6, -7.6, -7.6, -7.3, -6.98, -6.98, -7.28, -7.28, -6.97, -7.27, -7.27, -6.95, -7.25, -6.95, -6.34, -6.34, -6.34, -5.72, -5.72, -5.72, -6.01, -5.38, -5.38, -5.68, -5.68, -5.38, -5.38, -5.69, -5.37, -5.37, -5.37, -5.37, -5.68, -5.68, -6.35, -6.35, -6.32, -5.86, -5.02, -4.3, -2.84, 0.0, -2.24, -2.97, -2.8, -3.07, -4.24, -4.88, -4.92, -5.77, -6.16, -6.01, -5.98, -5.32, -5.1, -4.4, -4.83, -5.21, 0.0, 4.11, 3.48, 3.79, -0.0, -0.0, -0.0, -8.43, -8.43, -8.43, -8.18, -8.0, -8.37, -8.37, -8.08, -8.08, -8.08, -8.44, -8.15, -8.15, -8.15, -8.15, -8.19, -8.19, -8.19, -8.19, -8.19, -8.22, -8.22, -8.22, -8.22, -8.22, -8.22, -7.93, -7.93, -7.61, -7.6, -7.6, -7.6, -7.6, -7.6, -7.6, -7.6, -7.3, -6.98, -6.98, -7.28, -7.28, -6.97, -7.27, -7.27, -6.95, -7.25, -6.95, -6.34, -6.34, -6.34, -5.72, -5.72, -5.72, -6.01, -5.38, -5.38, -5.68, -5.68, -5.38, -5.38, -5.69, -5.37, -5.37, -5.37, -5.37, -5.68, -5.68, -6.35, -6.35, -6.32, -5.86, -5.02, -4.3, -2.84, 0.0, -2.24, -2.8, -2.8, -3.07, -4.24, -4.88, -5.36, -5.77, -6.7, -6.55, -6.32, -5.46, -4.88, -3.87, -3.87, -4.4, -4.2, 0.0, 0.0, 0.0, 0.0, 0.0, 0.0]}]